﻿<?xml version="1.0" encoding="utf-8" standalone="yes"?>
<gpx version="1.1" creator="GPS Visualizer http://www.gpsvisualizer.com/" xmlns="http://www.topografix.com/GPX/1/1" xmlns:xsi="http://www.w3.org/2001/XMLSchema-instance" xsi:schemaLocation="http://www.topografix.com/GPX/1/1 http://www.topografix.com/GPX/1/1/gpx.xsd">
<trk>
  <name>Camino Natural V+¡a Verde de Monfrag++e</name>
  <desc>Camino Natural V+¡a Verde de Monfrag++e</desc>
  <trkseg>
    <trkpt lat="39.94711" lon="-6.08623">
      <ele>408.678</ele>
      <time>2018-03-20T12:28:18.707Z</time>
    </trkpt>
    <trkpt lat="39.94713" lon="-6.08605">
      <ele>408.742</ele>
      <time>2018-03-20T12:28:18.707Z</time>
    </trkpt>
    <trkpt lat="39.94718" lon="-6.08573">
      <ele>409.657</ele>
      <time>2018-03-20T12:28:18.707Z</time>
    </trkpt>
    <trkpt lat="39.94721" lon="-6.08549">
      <ele>410.192</ele>
      <time>2018-03-20T12:28:18.707Z</time>
    </trkpt>
    <trkpt lat="39.94726" lon="-6.08501">
      <ele>412.1</ele>
      <time>2018-03-20T12:28:18.707Z</time>
    </trkpt>
    <trkpt lat="39.94728" lon="-6.08475">
      <ele>412.921</ele>
      <time>2018-03-20T12:28:18.707Z</time>
    </trkpt>
    <trkpt lat="39.9473" lon="-6.0844">
      <ele>414.28</ele>
      <time>2018-03-20T12:28:18.707Z</time>
    </trkpt>
    <trkpt lat="39.94732" lon="-6.08418">
      <ele>414.352</ele>
      <time>2018-03-20T12:28:18.707Z</time>
    </trkpt>
    <trkpt lat="39.94734" lon="-6.084">
      <ele>415.024</ele>
      <time>2018-03-20T12:28:18.707Z</time>
    </trkpt>
    <trkpt lat="39.94736" lon="-6.08386">
      <ele>415.652</ele>
      <time>2018-03-20T12:28:18.707Z</time>
    </trkpt>
    <trkpt lat="39.94738" lon="-6.08373">
      <ele>416.465</ele>
      <time>2018-03-20T12:28:18.708Z</time>
    </trkpt>
    <trkpt lat="39.9474" lon="-6.08359">
      <ele>417.28</ele>
      <time>2018-03-20T12:28:18.708Z</time>
    </trkpt>
    <trkpt lat="39.94747" lon="-6.08329">
      <ele>417.645</ele>
      <time>2018-03-20T12:28:18.708Z</time>
    </trkpt>
    <trkpt lat="39.9475" lon="-6.08317">
      <ele>417.412</ele>
      <time>2018-03-20T12:28:18.708Z</time>
    </trkpt>
    <trkpt lat="39.94758" lon="-6.08294">
      <ele>416.92</ele>
      <time>2018-03-20T12:28:18.708Z</time>
    </trkpt>
    <trkpt lat="39.94764" lon="-6.0828">
      <ele>416.161</ele>
      <time>2018-03-20T12:28:18.708Z</time>
    </trkpt>
    <trkpt lat="39.94786" lon="-6.08228">
      <ele>416.062</ele>
      <time>2018-03-20T12:28:18.708Z</time>
    </trkpt>
    <trkpt lat="39.94803" lon="-6.08184">
      <ele>415.908</ele>
      <time>2018-03-20T12:28:18.708Z</time>
    </trkpt>
    <trkpt lat="39.94817" lon="-6.08152">
      <ele>415.782</ele>
      <time>2018-03-20T12:28:18.708Z</time>
    </trkpt>
    <trkpt lat="39.94823" lon="-6.08137">
      <ele>415.261</ele>
      <time>2018-03-20T12:28:18.708Z</time>
    </trkpt>
    <trkpt lat="39.94831" lon="-6.0812">
      <ele>413.781</ele>
      <time>2018-03-20T12:28:18.708Z</time>
    </trkpt>
    <trkpt lat="39.9484" lon="-6.08097">
      <ele>412.492</ele>
      <time>2018-03-20T12:28:18.708Z</time>
    </trkpt>
    <trkpt lat="39.9485" lon="-6.08072">
      <ele>411.837</ele>
      <time>2018-03-20T12:28:18.709Z</time>
    </trkpt>
    <trkpt lat="39.94853" lon="-6.08064">
      <ele>411.797</ele>
      <time>2018-03-20T12:28:18.709Z</time>
    </trkpt>
    <trkpt lat="39.94863" lon="-6.08033">
      <ele>412.0</ele>
      <time>2018-03-20T12:28:18.709Z</time>
    </trkpt>
    <trkpt lat="39.9487" lon="-6.08009">
      <ele>411.54</ele>
      <time>2018-03-20T12:28:18.709Z</time>
    </trkpt>
    <trkpt lat="39.94874" lon="-6.0799">
      <ele>411.297</ele>
      <time>2018-03-20T12:28:18.709Z</time>
    </trkpt>
    <trkpt lat="39.94882" lon="-6.07949">
      <ele>409.957</ele>
      <time>2018-03-20T12:28:18.709Z</time>
    </trkpt>
    <trkpt lat="39.94886" lon="-6.07925">
      <ele>409.896</ele>
      <time>2018-03-20T12:28:18.709Z</time>
    </trkpt>
    <trkpt lat="39.9489" lon="-6.07885">
      <ele>411.04</ele>
      <time>2018-03-20T12:28:18.709Z</time>
    </trkpt>
    <trkpt lat="39.94892" lon="-6.07857">
      <ele>410.816</ele>
      <time>2018-03-20T12:28:18.709Z</time>
    </trkpt>
    <trkpt lat="39.94893" lon="-6.07843">
      <ele>409.844</ele>
      <time>2018-03-20T12:28:18.709Z</time>
    </trkpt>
    <trkpt lat="39.94893" lon="-6.07823">
      <ele>408.404</ele>
      <time>2018-03-20T12:28:18.709Z</time>
    </trkpt>
    <trkpt lat="39.94893" lon="-6.07786">
      <ele>405.74</ele>
      <time>2018-03-20T12:28:18.709Z</time>
    </trkpt>
    <trkpt lat="39.94892" lon="-6.07774">
      <ele>405.112</ele>
      <time>2018-03-20T12:28:18.709Z</time>
    </trkpt>
    <trkpt lat="39.94891" lon="-6.07768">
      <ele>405.076</ele>
      <time>2018-03-20T12:28:18.71Z</time>
    </trkpt>
    <trkpt lat="39.94888" lon="-6.07737">
      <ele>404.968</ele>
      <time>2018-03-20T12:28:18.71Z</time>
    </trkpt>
    <trkpt lat="39.94885" lon="-6.077">
      <ele>404.748</ele>
      <time>2018-03-20T12:28:18.71Z</time>
    </trkpt>
    <trkpt lat="39.94879" lon="-6.07639">
      <ele>405.288</ele>
      <time>2018-03-20T12:28:18.71Z</time>
    </trkpt>
    <trkpt lat="39.94877" lon="-6.07607">
      <ele>405.716</ele>
      <time>2018-03-20T12:28:18.71Z</time>
    </trkpt>
    <trkpt lat="39.94875" lon="-6.07567">
      <ele>404.912</ele>
      <time>2018-03-20T12:28:18.71Z</time>
    </trkpt>
    <trkpt lat="39.94875" lon="-6.07545">
      <ele>404.12</ele>
      <time>2018-03-20T12:28:18.71Z</time>
    </trkpt>
    <trkpt lat="39.94878" lon="-6.07487">
      <ele>402.14</ele>
      <time>2018-03-20T12:28:18.71Z</time>
    </trkpt>
    <trkpt lat="39.94882" lon="-6.0747">
      <ele>401.732</ele>
      <time>2018-03-20T12:28:18.71Z</time>
    </trkpt>
    <trkpt lat="39.94891" lon="-6.07405">
      <ele>399.084</ele>
      <time>2018-03-20T12:28:18.71Z</time>
    </trkpt>
    <trkpt lat="39.94902" lon="-6.07334">
      <ele>396.528</ele>
      <time>2018-03-20T12:28:18.71Z</time>
    </trkpt>
    <trkpt lat="39.94912" lon="-6.07276">
      <ele>396.179</ele>
      <time>2018-03-20T12:28:18.71Z</time>
    </trkpt>
    <trkpt lat="39.94915" lon="-6.07252">
      <ele>396.116</ele>
      <time>2018-03-20T12:28:18.71Z</time>
    </trkpt>
    <trkpt lat="39.94923" lon="-6.07208">
      <ele>397.512</ele>
      <time>2018-03-20T12:28:18.71Z</time>
    </trkpt>
    <trkpt lat="39.94926" lon="-6.07183">
      <ele>398.277</ele>
      <time>2018-03-20T12:28:18.711Z</time>
    </trkpt>
    <trkpt lat="39.94931" lon="-6.07153">
      <ele>399.032</ele>
      <time>2018-03-20T12:28:18.711Z</time>
    </trkpt>
    <trkpt lat="39.94936" lon="-6.07121">
      <ele>398.748</ele>
      <time>2018-03-20T12:28:18.711Z</time>
    </trkpt>
    <trkpt lat="39.94938" lon="-6.07108">
      <ele>398.45</ele>
      <time>2018-03-20T12:28:18.711Z</time>
    </trkpt>
    <trkpt lat="39.94946" lon="-6.07058">
      <ele>397.149</ele>
      <time>2018-03-20T12:28:18.711Z</time>
    </trkpt>
    <trkpt lat="39.9495" lon="-6.07029">
      <ele>396.244</ele>
      <time>2018-03-20T12:28:18.711Z</time>
    </trkpt>
    <trkpt lat="39.9496" lon="-6.06973">
      <ele>395.044</ele>
      <time>2018-03-20T12:28:18.711Z</time>
    </trkpt>
    <trkpt lat="39.94963" lon="-6.06955">
      <ele>393.552</ele>
      <time>2018-03-20T12:28:18.711Z</time>
    </trkpt>
    <trkpt lat="39.9497" lon="-6.06909">
      <ele>391.804</ele>
      <time>2018-03-20T12:28:18.711Z</time>
    </trkpt>
    <trkpt lat="39.94974" lon="-6.0688">
      <ele>391.0</ele>
      <time>2018-03-20T12:28:18.711Z</time>
    </trkpt>
    <trkpt lat="39.94983" lon="-6.06826">
      <ele>390.388</ele>
      <time>2018-03-20T12:28:18.711Z</time>
    </trkpt>
    <trkpt lat="39.94986" lon="-6.06805">
      <ele>390.506</ele>
      <time>2018-03-20T12:28:18.711Z</time>
    </trkpt>
    <trkpt lat="39.94995" lon="-6.06748">
      <ele>391.82</ele>
      <time>2018-03-20T12:28:18.711Z</time>
    </trkpt>
    <trkpt lat="39.94998" lon="-6.06731">
      <ele>391.928</ele>
      <time>2018-03-20T12:28:18.711Z</time>
    </trkpt>
    <trkpt lat="39.95008" lon="-6.06666">
      <ele>392.121</ele>
      <time>2018-03-20T12:28:18.712Z</time>
    </trkpt>
    <trkpt lat="39.95015" lon="-6.06622">
      <ele>391.292</ele>
      <time>2018-03-20T12:28:18.712Z</time>
    </trkpt>
    <trkpt lat="39.9502" lon="-6.06585">
      <ele>391.44</ele>
      <time>2018-03-20T12:28:18.712Z</time>
    </trkpt>
    <trkpt lat="39.95029" lon="-6.06531">
      <ele>388.286</ele>
      <time>2018-03-20T12:28:18.712Z</time>
    </trkpt>
    <trkpt lat="39.95038" lon="-6.06477">
      <ele>386.368</ele>
      <time>2018-03-20T12:28:18.712Z</time>
    </trkpt>
    <trkpt lat="39.95041" lon="-6.06458">
      <ele>386.232</ele>
      <time>2018-03-20T12:28:18.712Z</time>
    </trkpt>
    <trkpt lat="39.95044" lon="-6.06444">
      <ele>385.984</ele>
      <time>2018-03-20T12:28:18.712Z</time>
    </trkpt>
    <trkpt lat="39.95045" lon="-6.06435">
      <ele>385.66</ele>
      <time>2018-03-20T12:28:18.712Z</time>
    </trkpt>
    <trkpt lat="39.95049" lon="-6.06402">
      <ele>384.472</ele>
      <time>2018-03-20T12:28:18.712Z</time>
    </trkpt>
    <trkpt lat="39.95051" lon="-6.06377">
      <ele>384.0</ele>
      <time>2018-03-20T12:28:18.712Z</time>
    </trkpt>
    <trkpt lat="39.95051" lon="-6.06359">
      <ele>384.127</ele>
      <time>2018-03-20T12:28:18.712Z</time>
    </trkpt>
    <trkpt lat="39.95052" lon="-6.06321">
      <ele>386.188</ele>
      <time>2018-03-20T12:28:18.712Z</time>
    </trkpt>
    <trkpt lat="39.95052" lon="-6.06307">
      <ele>386.692</ele>
      <time>2018-03-20T12:28:18.713Z</time>
    </trkpt>
    <trkpt lat="39.9505" lon="-6.06288">
      <ele>387.232</ele>
      <time>2018-03-20T12:28:18.713Z</time>
    </trkpt>
    <trkpt lat="39.95047" lon="-6.06249">
      <ele>388.087</ele>
      <time>2018-03-20T12:28:18.713Z</time>
    </trkpt>
    <trkpt lat="39.95043" lon="-6.06219">
      <ele>388.212</ele>
      <time>2018-03-20T12:28:18.713Z</time>
    </trkpt>
    <trkpt lat="39.95038" lon="-6.06187">
      <ele>388.567</ele>
      <time>2018-03-20T12:28:18.713Z</time>
    </trkpt>
    <trkpt lat="39.95035" lon="-6.06157">
      <ele>387.084</ele>
      <time>2018-03-20T12:28:18.713Z</time>
    </trkpt>
    <trkpt lat="39.95032" lon="-6.06139">
      <ele>385.464</ele>
      <time>2018-03-20T12:28:18.713Z</time>
    </trkpt>
    <trkpt lat="39.95025" lon="-6.06088">
      <ele>383.649</ele>
      <time>2018-03-20T12:28:18.713Z</time>
    </trkpt>
    <trkpt lat="39.95022" lon="-6.06064">
      <ele>384.831</ele>
      <time>2018-03-20T12:28:18.713Z</time>
    </trkpt>
    <trkpt lat="39.95015" lon="-6.06014">
      <ele>385.62</ele>
      <time>2018-03-20T12:28:18.713Z</time>
    </trkpt>
    <trkpt lat="39.95012" lon="-6.05993">
      <ele>385.296</ele>
      <time>2018-03-20T12:28:18.713Z</time>
    </trkpt>
    <trkpt lat="39.95007" lon="-6.05951">
      <ele>384.185</ele>
      <time>2018-03-20T12:28:18.713Z</time>
    </trkpt>
    <trkpt lat="39.95004" lon="-6.05925">
      <ele>383.576</ele>
      <time>2018-03-20T12:28:18.713Z</time>
    </trkpt>
    <trkpt lat="39.95002" lon="-6.05913">
      <ele>383.43</ele>
      <time>2018-03-20T12:28:18.713Z</time>
    </trkpt>
    <trkpt lat="39.94995" lon="-6.05856">
      <ele>384.493</ele>
      <time>2018-03-20T12:28:18.713Z</time>
    </trkpt>
    <trkpt lat="39.94992" lon="-6.0584">
      <ele>384.355</ele>
      <time>2018-03-20T12:28:18.713Z</time>
    </trkpt>
    <trkpt lat="39.94986" lon="-6.05797">
      <ele>384.145</ele>
      <time>2018-03-20T12:28:18.713Z</time>
    </trkpt>
    <trkpt lat="39.94978" lon="-6.05734">
      <ele>382.632</ele>
      <time>2018-03-20T12:28:18.714Z</time>
    </trkpt>
    <trkpt lat="39.94973" lon="-6.05695">
      <ele>381.075</ele>
      <time>2018-03-20T12:28:18.714Z</time>
    </trkpt>
    <trkpt lat="39.94966" lon="-6.05639">
      <ele>382.098</ele>
      <time>2018-03-20T12:28:18.714Z</time>
    </trkpt>
    <trkpt lat="39.94962" lon="-6.05619">
      <ele>381.791</ele>
      <time>2018-03-20T12:28:18.714Z</time>
    </trkpt>
    <trkpt lat="39.94955" lon="-6.05561">
      <ele>381.52</ele>
      <time>2018-03-20T12:28:18.714Z</time>
    </trkpt>
    <trkpt lat="39.94953" lon="-6.05547">
      <ele>381.137</ele>
      <time>2018-03-20T12:28:18.715Z</time>
    </trkpt>
    <trkpt lat="39.94948" lon="-6.05513">
      <ele>379.852</ele>
      <time>2018-03-20T12:28:18.715Z</time>
    </trkpt>
    <trkpt lat="39.94945" lon="-6.05486">
      <ele>378.556</ele>
      <time>2018-03-20T12:28:18.715Z</time>
    </trkpt>
    <trkpt lat="39.94945" lon="-6.05471">
      <ele>378.06</ele>
      <time>2018-03-20T12:28:18.716Z</time>
    </trkpt>
    <trkpt lat="39.94945" lon="-6.0543">
      <ele>378.57</ele>
      <time>2018-03-20T12:28:18.716Z</time>
    </trkpt>
    <trkpt lat="39.94946" lon="-6.05397">
      <ele>379.072</ele>
      <time>2018-03-20T12:28:18.716Z</time>
    </trkpt>
    <trkpt lat="39.94949" lon="-6.05369">
      <ele>379.047</ele>
      <time>2018-03-20T12:28:18.716Z</time>
    </trkpt>
    <trkpt lat="39.94956" lon="-6.0533">
      <ele>379.12</ele>
      <time>2018-03-20T12:28:18.716Z</time>
    </trkpt>
    <trkpt lat="39.94959" lon="-6.0532">
      <ele>379.48</ele>
      <time>2018-03-20T12:28:18.716Z</time>
    </trkpt>
    <trkpt lat="39.94968" lon="-6.05283">
      <ele>380.689</ele>
      <time>2018-03-20T12:28:18.716Z</time>
    </trkpt>
    <trkpt lat="39.94977" lon="-6.05256">
      <ele>381.344</ele>
      <time>2018-03-20T12:28:18.717Z</time>
    </trkpt>
    <trkpt lat="39.9498" lon="-6.05246">
      <ele>381.6</ele>
      <time>2018-03-20T12:28:18.717Z</time>
    </trkpt>
    <trkpt lat="39.94996" lon="-6.05207">
      <ele>383.099</ele>
      <time>2018-03-20T12:28:18.717Z</time>
    </trkpt>
    <trkpt lat="39.95007" lon="-6.05185">
      <ele>384.008</ele>
      <time>2018-03-20T12:28:18.717Z</time>
    </trkpt>
    <trkpt lat="39.95027" lon="-6.0515">
      <ele>386.288</ele>
      <time>2018-03-20T12:28:18.717Z</time>
    </trkpt>
    <trkpt lat="39.95034" lon="-6.05138">
      <ele>386.153</ele>
      <time>2018-03-20T12:28:18.717Z</time>
    </trkpt>
    <trkpt lat="39.95056" lon="-6.05109">
      <ele>383.817</ele>
      <time>2018-03-20T12:28:18.717Z</time>
    </trkpt>
    <trkpt lat="39.95079" lon="-6.05082">
      <ele>381.108</ele>
      <time>2018-03-20T12:28:18.717Z</time>
    </trkpt>
    <trkpt lat="39.95102" lon="-6.05058">
      <ele>380.088</ele>
      <time>2018-03-20T12:28:18.717Z</time>
    </trkpt>
    <trkpt lat="39.95127" lon="-6.05035">
      <ele>379.577</ele>
      <time>2018-03-20T12:28:18.717Z</time>
    </trkpt>
    <trkpt lat="39.95154" lon="-6.05009">
      <ele>377.412</ele>
      <time>2018-03-20T12:28:18.718Z</time>
    </trkpt>
    <trkpt lat="39.95179" lon="-6.04983">
      <ele>376.345</ele>
      <time>2018-03-20T12:28:18.718Z</time>
    </trkpt>
    <trkpt lat="39.95202" lon="-6.04958">
      <ele>375.893</ele>
      <time>2018-03-20T12:28:18.718Z</time>
    </trkpt>
    <trkpt lat="39.95227" lon="-6.04925">
      <ele>375.352</ele>
      <time>2018-03-20T12:28:18.718Z</time>
    </trkpt>
    <trkpt lat="39.95237" lon="-6.04909">
      <ele>374.706</ele>
      <time>2018-03-20T12:28:18.718Z</time>
    </trkpt>
    <trkpt lat="39.95244" lon="-6.04896">
      <ele>373.833</ele>
      <time>2018-03-20T12:28:18.718Z</time>
    </trkpt>
    <trkpt lat="39.95253" lon="-6.04879">
      <ele>372.574</ele>
      <time>2018-03-20T12:28:18.718Z</time>
    </trkpt>
    <trkpt lat="39.95256" lon="-6.04874">
      <ele>372.364</ele>
      <time>2018-03-20T12:28:18.718Z</time>
    </trkpt>
    <trkpt lat="39.95268" lon="-6.04846">
      <ele>372.0</ele>
      <time>2018-03-20T12:28:18.718Z</time>
    </trkpt>
    <trkpt lat="39.95277" lon="-6.04826">
      <ele>372.249</ele>
      <time>2018-03-20T12:28:18.719Z</time>
    </trkpt>
    <trkpt lat="39.9528" lon="-6.04816">
      <ele>372.674</ele>
      <time>2018-03-20T12:28:18.719Z</time>
    </trkpt>
    <trkpt lat="39.95286" lon="-6.04794">
      <ele>373.003</ele>
      <time>2018-03-20T12:28:18.719Z</time>
    </trkpt>
    <trkpt lat="39.95292" lon="-6.04769">
      <ele>373.34</ele>
      <time>2018-03-20T12:28:18.719Z</time>
    </trkpt>
    <trkpt lat="39.95299" lon="-6.04739">
      <ele>375.529</ele>
      <time>2018-03-20T12:28:18.719Z</time>
    </trkpt>
    <trkpt lat="39.953" lon="-6.04731">
      <ele>376.378</ele>
      <time>2018-03-20T12:28:18.719Z</time>
    </trkpt>
    <trkpt lat="39.95303" lon="-6.04686">
      <ele>379.056</ele>
      <time>2018-03-20T12:28:18.719Z</time>
    </trkpt>
    <trkpt lat="39.95304" lon="-6.04673">
      <ele>379.647</ele>
      <time>2018-03-20T12:28:18.719Z</time>
    </trkpt>
    <trkpt lat="39.95303" lon="-6.04657">
      <ele>380.164</ele>
      <time>2018-03-20T12:28:18.719Z</time>
    </trkpt>
    <trkpt lat="39.95303" lon="-6.04631">
      <ele>380.842</ele>
      <time>2018-03-20T12:28:18.719Z</time>
    </trkpt>
    <trkpt lat="39.95302" lon="-6.04605">
      <ele>380.844</ele>
      <time>2018-03-20T12:28:18.72Z</time>
    </trkpt>
    <trkpt lat="39.953" lon="-6.04583">
      <ele>380.6</ele>
      <time>2018-03-20T12:28:18.72Z</time>
    </trkpt>
    <trkpt lat="39.95293" lon="-6.04544">
      <ele>379.868</ele>
      <time>2018-03-20T12:28:18.72Z</time>
    </trkpt>
    <trkpt lat="39.95288" lon="-6.04525">
      <ele>379.431</ele>
      <time>2018-03-20T12:28:18.72Z</time>
    </trkpt>
    <trkpt lat="39.95282" lon="-6.04506">
      <ele>379.817</ele>
      <time>2018-03-20T12:28:18.72Z</time>
    </trkpt>
    <trkpt lat="39.95275" lon="-6.04483">
      <ele>380.651</ele>
      <time>2018-03-20T12:28:18.72Z</time>
    </trkpt>
    <trkpt lat="39.95266" lon="-6.04457">
      <ele>381.548</ele>
      <time>2018-03-20T12:28:18.72Z</time>
    </trkpt>
    <trkpt lat="39.95259" lon="-6.04442">
      <ele>382.088</ele>
      <time>2018-03-20T12:28:18.72Z</time>
    </trkpt>
    <trkpt lat="39.95253" lon="-6.04432">
      <ele>382.448</ele>
      <time>2018-03-20T12:28:18.72Z</time>
    </trkpt>
    <trkpt lat="39.95234" lon="-6.04397">
      <ele>384.008</ele>
      <time>2018-03-20T12:28:18.72Z</time>
    </trkpt>
    <trkpt lat="39.95207" lon="-6.04348">
      <ele>385.137</ele>
      <time>2018-03-20T12:28:18.72Z</time>
    </trkpt>
    <trkpt lat="39.95186" lon="-6.04311">
      <ele>385.44</ele>
      <time>2018-03-20T12:28:18.72Z</time>
    </trkpt>
    <trkpt lat="39.95173" lon="-6.04287">
      <ele>385.896</ele>
      <time>2018-03-20T12:28:18.72Z</time>
    </trkpt>
    <trkpt lat="39.95158" lon="-6.04258">
      <ele>386.712</ele>
      <time>2018-03-20T12:28:18.72Z</time>
    </trkpt>
    <trkpt lat="39.95148" lon="-6.04235">
      <ele>387.0</ele>
      <time>2018-03-20T12:28:18.721Z</time>
    </trkpt>
    <trkpt lat="39.95142" lon="-6.04222">
      <ele>387.008</ele>
      <time>2018-03-20T12:28:18.721Z</time>
    </trkpt>
    <trkpt lat="39.95136" lon="-6.04193">
      <ele>388.052</ele>
      <time>2018-03-20T12:28:18.721Z</time>
    </trkpt>
    <trkpt lat="39.95129" lon="-6.04157">
      <ele>389.348</ele>
      <time>2018-03-20T12:28:18.721Z</time>
    </trkpt>
    <trkpt lat="39.95124" lon="-6.04123">
      <ele>390.837</ele>
      <time>2018-03-20T12:28:18.721Z</time>
    </trkpt>
    <trkpt lat="39.95117" lon="-6.04077">
      <ele>393.44</ele>
      <time>2018-03-20T12:28:18.721Z</time>
    </trkpt>
    <trkpt lat="39.95115" lon="-6.04063">
      <ele>393.872</ele>
      <time>2018-03-20T12:28:18.721Z</time>
    </trkpt>
    <trkpt lat="39.95113" lon="-6.04023">
      <ele>394.136</ele>
      <time>2018-03-20T12:28:18.721Z</time>
    </trkpt>
    <trkpt lat="39.95113" lon="-6.04003">
      <ele>394.136</ele>
      <time>2018-03-20T12:28:18.721Z</time>
    </trkpt>
    <trkpt lat="39.95116" lon="-6.03986">
      <ele>393.848</ele>
      <time>2018-03-20T12:28:18.721Z</time>
    </trkpt>
    <trkpt lat="39.95115" lon="-6.0396">
      <ele>392.84</ele>
      <time>2018-03-20T12:28:18.721Z</time>
    </trkpt>
    <trkpt lat="39.95116" lon="-6.03948">
      <ele>392.48</ele>
      <time>2018-03-20T12:28:18.721Z</time>
    </trkpt>
    <trkpt lat="39.95117" lon="-6.0394">
      <ele>392.23</ele>
      <time>2018-03-20T12:28:18.722Z</time>
    </trkpt>
    <trkpt lat="39.95103" lon="-6.03939">
      <ele>391.861</ele>
      <time>2018-03-20T12:28:18.722Z</time>
    </trkpt>
    <trkpt lat="39.95083" lon="-6.03937">
      <ele>392.03</ele>
      <time>2018-03-20T12:28:18.722Z</time>
    </trkpt>
    <trkpt lat="39.95075" lon="-6.03936">
      <ele>392.718</ele>
      <time>2018-03-20T12:28:18.722Z</time>
    </trkpt>
    <trkpt lat="39.95071" lon="-6.03935">
      <ele>393.03</ele>
      <time>2018-03-20T12:28:18.722Z</time>
    </trkpt>
    <trkpt lat="39.95071" lon="-6.03928">
      <ele>392.806</ele>
      <time>2018-03-20T12:28:18.722Z</time>
    </trkpt>
    <trkpt lat="39.95079" lon="-6.03912">
      <ele>391.962</ele>
      <time>2018-03-20T12:28:18.722Z</time>
    </trkpt>
    <trkpt lat="39.95083" lon="-6.03905">
      <ele>391.587</ele>
      <time>2018-03-20T12:28:18.722Z</time>
    </trkpt>
    <trkpt lat="39.95084" lon="-6.03898">
      <ele>391.304</ele>
      <time>2018-03-20T12:28:18.722Z</time>
    </trkpt>
    <trkpt lat="39.95083" lon="-6.03881">
      <ele>390.435</ele>
      <time>2018-03-20T12:28:18.722Z</time>
    </trkpt>
    <trkpt lat="39.95082" lon="-6.03856">
      <ele>388.855</ele>
      <time>2018-03-20T12:28:18.722Z</time>
    </trkpt>
    <trkpt lat="39.95081" lon="-6.03837">
      <ele>388.143</ele>
      <time>2018-03-20T12:28:18.722Z</time>
    </trkpt>
    <trkpt lat="39.9508" lon="-6.03801">
      <ele>387.0</ele>
      <time>2018-03-20T12:28:18.723Z</time>
    </trkpt>
    <trkpt lat="39.95079" lon="-6.03782">
      <ele>387.0</ele>
      <time>2018-03-20T12:28:18.723Z</time>
    </trkpt>
    <trkpt lat="39.95076" lon="-6.03764">
      <ele>387.0</ele>
      <time>2018-03-20T12:28:18.723Z</time>
    </trkpt>
    <trkpt lat="39.95073" lon="-6.03729">
      <ele>387.0</ele>
      <time>2018-03-20T12:28:18.723Z</time>
    </trkpt>
    <trkpt lat="39.9507" lon="-6.03706">
      <ele>387.584</ele>
      <time>2018-03-20T12:28:18.723Z</time>
    </trkpt>
    <trkpt lat="39.95068" lon="-6.03689">
      <ele>388.196</ele>
      <time>2018-03-20T12:28:18.723Z</time>
    </trkpt>
    <trkpt lat="39.95063" lon="-6.03655">
      <ele>389.0</ele>
      <time>2018-03-20T12:28:18.723Z</time>
    </trkpt>
    <trkpt lat="39.95057" lon="-6.03625">
      <ele>388.5</ele>
      <time>2018-03-20T12:28:18.723Z</time>
    </trkpt>
    <trkpt lat="39.95047" lon="-6.03579">
      <ele>385.428</ele>
      <time>2018-03-20T12:28:18.723Z</time>
    </trkpt>
    <trkpt lat="39.95041" lon="-6.0355">
      <ele>383.695</ele>
      <time>2018-03-20T12:28:18.723Z</time>
    </trkpt>
    <trkpt lat="39.95028" lon="-6.03502">
      <ele>381.095</ele>
      <time>2018-03-20T12:28:18.723Z</time>
    </trkpt>
    <trkpt lat="39.95022" lon="-6.03482">
      <ele>381.44</ele>
      <time>2018-03-20T12:28:18.723Z</time>
    </trkpt>
    <trkpt lat="39.95017" lon="-6.03468">
      <ele>381.857</ele>
      <time>2018-03-20T12:28:18.723Z</time>
    </trkpt>
    <trkpt lat="39.95005" lon="-6.03427">
      <ele>383.101</ele>
      <time>2018-03-20T12:28:18.723Z</time>
    </trkpt>
    <trkpt lat="39.94999" lon="-6.03406">
      <ele>382.906</ele>
      <time>2018-03-20T12:28:18.724Z</time>
    </trkpt>
    <trkpt lat="39.94995" lon="-6.03398">
      <ele>382.581</ele>
      <time>2018-03-20T12:28:18.724Z</time>
    </trkpt>
    <trkpt lat="39.9498" lon="-6.03353">
      <ele>381.77</ele>
      <time>2018-03-20T12:28:18.724Z</time>
    </trkpt>
    <trkpt lat="39.94976" lon="-6.03337">
      <ele>382.022</ele>
      <time>2018-03-20T12:28:18.724Z</time>
    </trkpt>
    <trkpt lat="39.94973" lon="-6.03327">
      <ele>382.028</ele>
      <time>2018-03-20T12:28:18.724Z</time>
    </trkpt>
    <trkpt lat="39.94955" lon="-6.0327">
      <ele>379.48</ele>
      <time>2018-03-20T12:28:18.724Z</time>
    </trkpt>
    <trkpt lat="39.94948" lon="-6.03248">
      <ele>378.247</ele>
      <time>2018-03-20T12:28:18.724Z</time>
    </trkpt>
    <trkpt lat="39.94942" lon="-6.03222">
      <ele>377.831</ele>
      <time>2018-03-20T12:28:18.724Z</time>
    </trkpt>
    <trkpt lat="39.94938" lon="-6.032">
      <ele>377.965</ele>
      <time>2018-03-20T12:28:18.724Z</time>
    </trkpt>
    <trkpt lat="39.94935" lon="-6.03178">
      <ele>377.64</ele>
      <time>2018-03-20T12:28:18.724Z</time>
    </trkpt>
    <trkpt lat="39.94932" lon="-6.03147">
      <ele>377.599</ele>
      <time>2018-03-20T12:28:18.724Z</time>
    </trkpt>
    <trkpt lat="39.9493" lon="-6.03124">
      <ele>377.936</ele>
      <time>2018-03-20T12:28:18.724Z</time>
    </trkpt>
    <trkpt lat="39.9493" lon="-6.03099">
      <ele>378.4</ele>
      <time>2018-03-20T12:28:18.725Z</time>
    </trkpt>
    <trkpt lat="39.94932" lon="-6.03071">
      <ele>378.714</ele>
      <time>2018-03-20T12:28:18.725Z</time>
    </trkpt>
    <trkpt lat="39.94934" lon="-6.03043">
      <ele>378.76</ele>
      <time>2018-03-20T12:28:18.725Z</time>
    </trkpt>
    <trkpt lat="39.94937" lon="-6.03023">
      <ele>378.434</ele>
      <time>2018-03-20T12:28:18.725Z</time>
    </trkpt>
    <trkpt lat="39.94946" lon="-6.02984">
      <ele>375.848</ele>
      <time>2018-03-20T12:28:18.725Z</time>
    </trkpt>
    <trkpt lat="39.94956" lon="-6.02951">
      <ele>373.472</ele>
      <time>2018-03-20T12:28:18.725Z</time>
    </trkpt>
    <trkpt lat="39.94976" lon="-6.02894">
      <ele>372.814</ele>
      <time>2018-03-20T12:28:18.725Z</time>
    </trkpt>
    <trkpt lat="39.94981" lon="-6.02877">
      <ele>373.58</ele>
      <time>2018-03-20T12:28:18.725Z</time>
    </trkpt>
    <trkpt lat="39.94999" lon="-6.02831">
      <ele>374.445</ele>
      <time>2018-03-20T12:28:18.725Z</time>
    </trkpt>
    <trkpt lat="39.95004" lon="-6.0281">
      <ele>372.216</ele>
      <time>2018-03-20T12:28:18.725Z</time>
    </trkpt>
    <trkpt lat="39.95007" lon="-6.02801">
      <ele>371.393</ele>
      <time>2018-03-20T12:28:18.725Z</time>
    </trkpt>
    <trkpt lat="39.95016" lon="-6.02757">
      <ele>368.384</ele>
      <time>2018-03-20T12:28:18.726Z</time>
    </trkpt>
    <trkpt lat="39.95019" lon="-6.02726">
      <ele>366.692</ele>
      <time>2018-03-20T12:28:18.726Z</time>
    </trkpt>
    <trkpt lat="39.95022" lon="-6.0268">
      <ele>365.168</ele>
      <time>2018-03-20T12:28:18.726Z</time>
    </trkpt>
    <trkpt lat="39.95023" lon="-6.02658">
      <ele>365.312</ele>
      <time>2018-03-20T12:28:18.726Z</time>
    </trkpt>
    <trkpt lat="39.9502" lon="-6.02623">
      <ele>364.468</ele>
      <time>2018-03-20T12:28:18.726Z</time>
    </trkpt>
    <trkpt lat="39.95018" lon="-6.026">
      <ele>364.226</ele>
      <time>2018-03-20T12:28:18.726Z</time>
    </trkpt>
    <trkpt lat="39.95017" lon="-6.02587">
      <ele>364.51</ele>
      <time>2018-03-20T12:28:18.726Z</time>
    </trkpt>
    <trkpt lat="39.95015" lon="-6.02578">
      <ele>364.732</ele>
      <time>2018-03-20T12:28:18.726Z</time>
    </trkpt>
    <trkpt lat="39.95005" lon="-6.02541">
      <ele>366.039</ele>
      <time>2018-03-20T12:28:18.726Z</time>
    </trkpt>
    <trkpt lat="39.94994" lon="-6.02509">
      <ele>369.098</ele>
      <time>2018-03-20T12:28:18.726Z</time>
    </trkpt>
    <trkpt lat="39.94986" lon="-6.02484">
      <ele>370.576</ele>
      <time>2018-03-20T12:28:18.726Z</time>
    </trkpt>
    <trkpt lat="39.94968" lon="-6.02444">
      <ele>372.168</ele>
      <time>2018-03-20T12:28:18.726Z</time>
    </trkpt>
    <trkpt lat="39.94951" lon="-6.02414">
      <ele>373.837</ele>
      <time>2018-03-20T12:28:18.726Z</time>
    </trkpt>
    <trkpt lat="39.94923" lon="-6.02364">
      <ele>376.668</ele>
      <time>2018-03-20T12:28:18.726Z</time>
    </trkpt>
    <trkpt lat="39.94896" lon="-6.02313">
      <ele>375.711</ele>
      <time>2018-03-20T12:28:18.727Z</time>
    </trkpt>
    <trkpt lat="39.94883" lon="-6.02289">
      <ele>374.702</ele>
      <time>2018-03-20T12:28:18.727Z</time>
    </trkpt>
    <trkpt lat="39.94861" lon="-6.02249">
      <ele>375.036</ele>
      <time>2018-03-20T12:28:18.727Z</time>
    </trkpt>
    <trkpt lat="39.94849" lon="-6.02226">
      <ele>375.487</ele>
      <time>2018-03-20T12:28:18.727Z</time>
    </trkpt>
    <trkpt lat="39.94838" lon="-6.02206">
      <ele>375.168</ele>
      <time>2018-03-20T12:28:18.727Z</time>
    </trkpt>
    <trkpt lat="39.94815" lon="-6.02158">
      <ele>371.602</ele>
      <time>2018-03-20T12:28:18.727Z</time>
    </trkpt>
    <trkpt lat="39.94804" lon="-6.02139">
      <ele>370.06</ele>
      <time>2018-03-20T12:28:18.727Z</time>
    </trkpt>
    <trkpt lat="39.948" lon="-6.02132">
      <ele>370.646</ele>
      <time>2018-03-20T12:28:18.727Z</time>
    </trkpt>
    <trkpt lat="39.9478" lon="-6.02094">
      <ele>372.049</ele>
      <time>2018-03-20T12:28:18.727Z</time>
    </trkpt>
    <trkpt lat="39.94764" lon="-6.02064">
      <ele>373.041</ele>
      <time>2018-03-20T12:28:18.727Z</time>
    </trkpt>
    <trkpt lat="39.94746" lon="-6.02031">
      <ele>374.723</ele>
      <time>2018-03-20T12:28:18.727Z</time>
    </trkpt>
    <trkpt lat="39.9473" lon="-6.01999">
      <ele>376.062</ele>
      <time>2018-03-20T12:28:18.727Z</time>
    </trkpt>
    <trkpt lat="39.94693" lon="-6.0193">
      <ele>378.468</ele>
      <time>2018-03-20T12:28:18.727Z</time>
    </trkpt>
    <trkpt lat="39.94682" lon="-6.0191">
      <ele>378.42</ele>
      <time>2018-03-20T12:28:18.728Z</time>
    </trkpt>
    <trkpt lat="39.94666" lon="-6.01879">
      <ele>377.62</ele>
      <time>2018-03-20T12:28:18.728Z</time>
    </trkpt>
    <trkpt lat="39.94652" lon="-6.01854">
      <ele>376.472</ele>
      <time>2018-03-20T12:28:18.728Z</time>
    </trkpt>
    <trkpt lat="39.9464" lon="-6.01835">
      <ele>376.04</ele>
      <time>2018-03-20T12:28:18.728Z</time>
    </trkpt>
    <trkpt lat="39.94609" lon="-6.01787">
      <ele>376.567</ele>
      <time>2018-03-20T12:28:18.728Z</time>
    </trkpt>
    <trkpt lat="39.946" lon="-6.01771">
      <ele>377.186</ele>
      <time>2018-03-20T12:28:18.728Z</time>
    </trkpt>
    <trkpt lat="39.94592" lon="-6.0176">
      <ele>378.032</ele>
      <time>2018-03-20T12:28:18.728Z</time>
    </trkpt>
    <trkpt lat="39.94569" lon="-6.01729">
      <ele>379.504</ele>
      <time>2018-03-20T12:28:18.728Z</time>
    </trkpt>
    <trkpt lat="39.94556" lon="-6.01712">
      <ele>380.374</ele>
      <time>2018-03-20T12:28:18.728Z</time>
    </trkpt>
    <trkpt lat="39.94543" lon="-6.01698">
      <ele>380.026</ele>
      <time>2018-03-20T12:28:18.728Z</time>
    </trkpt>
    <trkpt lat="39.94529" lon="-6.0168">
      <ele>379.608</ele>
      <time>2018-03-20T12:28:18.728Z</time>
    </trkpt>
    <trkpt lat="39.94508" lon="-6.01654">
      <ele>378.576</ele>
      <time>2018-03-20T12:28:18.728Z</time>
    </trkpt>
    <trkpt lat="39.94486" lon="-6.01624">
      <ele>377.528</ele>
      <time>2018-03-20T12:28:18.728Z</time>
    </trkpt>
    <trkpt lat="39.94461" lon="-6.01593">
      <ele>376.051</ele>
      <time>2018-03-20T12:28:18.728Z</time>
    </trkpt>
    <trkpt lat="39.94449" lon="-6.01579">
      <ele>375.614</ele>
      <time>2018-03-20T12:28:18.729Z</time>
    </trkpt>
    <trkpt lat="39.94438" lon="-6.01562">
      <ele>376.072</ele>
      <time>2018-03-20T12:28:18.729Z</time>
    </trkpt>
    <trkpt lat="39.94423" lon="-6.0154">
      <ele>376.576</ele>
      <time>2018-03-20T12:28:18.729Z</time>
    </trkpt>
    <trkpt lat="39.94412" lon="-6.01525">
      <ele>377.049</ele>
      <time>2018-03-20T12:28:18.729Z</time>
    </trkpt>
    <trkpt lat="39.94394" lon="-6.01501">
      <ele>378.899</ele>
      <time>2018-03-20T12:28:18.729Z</time>
    </trkpt>
    <trkpt lat="39.94361" lon="-6.01457">
      <ele>381.092</ele>
      <time>2018-03-20T12:28:18.729Z</time>
    </trkpt>
    <trkpt lat="39.9434" lon="-6.01433">
      <ele>382.476</ele>
      <time>2018-03-20T12:28:18.729Z</time>
    </trkpt>
    <trkpt lat="39.94322" lon="-6.01406">
      <ele>383.568</ele>
      <time>2018-03-20T12:28:18.729Z</time>
    </trkpt>
    <trkpt lat="39.94302" lon="-6.01377">
      <ele>383.3</ele>
      <time>2018-03-20T12:28:18.729Z</time>
    </trkpt>
    <trkpt lat="39.94274" lon="-6.01344">
      <ele>383.48</ele>
      <time>2018-03-20T12:28:18.729Z</time>
    </trkpt>
    <trkpt lat="39.94265" lon="-6.01331">
      <ele>383.54</ele>
      <time>2018-03-20T12:28:18.729Z</time>
    </trkpt>
    <trkpt lat="39.94253" lon="-6.01315">
      <ele>383.108</ele>
      <time>2018-03-20T12:28:18.729Z</time>
    </trkpt>
    <trkpt lat="39.94222" lon="-6.01277">
      <ele>384.0</ele>
      <time>2018-03-20T12:28:18.729Z</time>
    </trkpt>
    <trkpt lat="39.94196" lon="-6.01247">
      <ele>384.102</ele>
      <time>2018-03-20T12:28:18.73Z</time>
    </trkpt>
    <trkpt lat="39.94151" lon="-6.01197">
      <ele>385.344</ele>
      <time>2018-03-20T12:28:18.73Z</time>
    </trkpt>
    <trkpt lat="39.94134" lon="-6.01179">
      <ele>385.936</ele>
      <time>2018-03-20T12:28:18.73Z</time>
    </trkpt>
    <trkpt lat="39.94101" lon="-6.01141">
      <ele>386.56</ele>
      <time>2018-03-20T12:28:18.73Z</time>
    </trkpt>
    <trkpt lat="39.94086" lon="-6.01124">
      <ele>386.632</ele>
      <time>2018-03-20T12:28:18.73Z</time>
    </trkpt>
    <trkpt lat="39.94067" lon="-6.01098">
      <ele>387.0</ele>
      <time>2018-03-20T12:28:18.73Z</time>
    </trkpt>
    <trkpt lat="39.94055" lon="-6.01083">
      <ele>387.0</ele>
      <time>2018-03-20T12:28:18.73Z</time>
    </trkpt>
    <trkpt lat="39.94036" lon="-6.01057">
      <ele>387.0</ele>
      <time>2018-03-20T12:28:18.73Z</time>
    </trkpt>
    <trkpt lat="39.94022" lon="-6.01034">
      <ele>387.823</ele>
      <time>2018-03-20T12:28:18.73Z</time>
    </trkpt>
    <trkpt lat="39.94009" lon="-6.01012">
      <ele>388.0</ele>
      <time>2018-03-20T12:28:18.73Z</time>
    </trkpt>
    <trkpt lat="39.93988" lon="-6.00975">
      <ele>388.043</ele>
      <time>2018-03-20T12:28:18.73Z</time>
    </trkpt>
    <trkpt lat="39.93974" lon="-6.00948">
      <ele>388.872</ele>
      <time>2018-03-20T12:28:18.73Z</time>
    </trkpt>
    <trkpt lat="39.93955" lon="-6.00911">
      <ele>389.71</ele>
      <time>2018-03-20T12:28:18.73Z</time>
    </trkpt>
    <trkpt lat="39.93942" lon="-6.00885">
      <ele>391.0</ele>
      <time>2018-03-20T12:28:18.73Z</time>
    </trkpt>
    <trkpt lat="39.93925" lon="-6.00856">
      <ele>390.816</ele>
      <time>2018-03-20T12:28:18.731Z</time>
    </trkpt>
    <trkpt lat="39.9391" lon="-6.00827">
      <ele>389.359</ele>
      <time>2018-03-20T12:28:18.731Z</time>
    </trkpt>
    <trkpt lat="39.93896" lon="-6.00801">
      <ele>388.0</ele>
      <time>2018-03-20T12:28:18.731Z</time>
    </trkpt>
    <trkpt lat="39.9388" lon="-6.00771">
      <ele>387.922</ele>
      <time>2018-03-20T12:28:18.731Z</time>
    </trkpt>
    <trkpt lat="39.9387" lon="-6.00746">
      <ele>387.274</ele>
      <time>2018-03-20T12:28:18.731Z</time>
    </trkpt>
    <trkpt lat="39.93867" lon="-6.00737">
      <ele>387.113</ele>
      <time>2018-03-20T12:28:18.731Z</time>
    </trkpt>
  </trkseg>
  <trkseg>
    <trkpt lat="39.93867" lon="-6.00737">
      <ele>387.113</ele>
      <time>2018-03-20T12:28:18.731Z</time>
    </trkpt>
    <trkpt lat="39.93857" lon="-6.00709">
      <ele>386.376</ele>
      <time>2018-03-20T12:28:18.731Z</time>
    </trkpt>
    <trkpt lat="39.93848" lon="-6.00681">
      <ele>385.528</ele>
      <time>2018-03-20T12:28:18.731Z</time>
    </trkpt>
    <trkpt lat="39.93839" lon="-6.00661">
      <ele>385.042</ele>
      <time>2018-03-20T12:28:18.731Z</time>
    </trkpt>
    <trkpt lat="39.93825" lon="-6.00626">
      <ele>383.075</ele>
      <time>2018-03-20T12:28:18.731Z</time>
    </trkpt>
    <trkpt lat="39.93816" lon="-6.00606">
      <ele>382.376</ele>
      <time>2018-03-20T12:28:18.731Z</time>
    </trkpt>
    <trkpt lat="39.93803" lon="-6.00573">
      <ele>382.396</ele>
      <time>2018-03-20T12:28:18.731Z</time>
    </trkpt>
    <trkpt lat="39.93793" lon="-6.00548">
      <ele>382.399</ele>
      <time>2018-03-20T12:28:18.732Z</time>
    </trkpt>
    <trkpt lat="39.93778" lon="-6.00506">
      <ele>382.006</ele>
      <time>2018-03-20T12:28:18.732Z</time>
    </trkpt>
    <trkpt lat="39.93772" lon="-6.00491">
      <ele>382.324</ele>
      <time>2018-03-20T12:28:18.732Z</time>
    </trkpt>
    <trkpt lat="39.9376" lon="-6.00459">
      <ele>383.0</ele>
      <time>2018-03-20T12:28:18.732Z</time>
    </trkpt>
    <trkpt lat="39.93752" lon="-6.00437">
      <ele>383.268</ele>
      <time>2018-03-20T12:28:18.732Z</time>
    </trkpt>
    <trkpt lat="39.93742" lon="-6.0041">
      <ele>383.493</ele>
      <time>2018-03-20T12:28:18.732Z</time>
    </trkpt>
    <trkpt lat="39.93733" lon="-6.00388">
      <ele>383.388</ele>
      <time>2018-03-20T12:28:18.732Z</time>
    </trkpt>
    <trkpt lat="39.93718" lon="-6.00348">
      <ele>383.472</ele>
      <time>2018-03-20T12:28:18.732Z</time>
    </trkpt>
    <trkpt lat="39.93712" lon="-6.0033">
      <ele>384.0</ele>
      <time>2018-03-20T12:28:18.732Z</time>
    </trkpt>
    <trkpt lat="39.937" lon="-6.00299">
      <ele>383.811</ele>
      <time>2018-03-20T12:28:18.732Z</time>
    </trkpt>
    <trkpt lat="39.93688" lon="-6.0027">
      <ele>383.232</ele>
      <time>2018-03-20T12:28:18.733Z</time>
    </trkpt>
    <trkpt lat="39.9367" lon="-6.00227">
      <ele>383.88</ele>
      <time>2018-03-20T12:28:18.733Z</time>
    </trkpt>
    <trkpt lat="39.9366" lon="-6.00204">
      <ele>383.843</ele>
      <time>2018-03-20T12:28:18.733Z</time>
    </trkpt>
    <trkpt lat="39.93638" lon="-6.0015">
      <ele>380.174</ele>
      <time>2018-03-20T12:28:18.733Z</time>
    </trkpt>
    <trkpt lat="39.93628" lon="-6.00128">
      <ele>378.608</ele>
      <time>2018-03-20T12:28:18.733Z</time>
    </trkpt>
    <trkpt lat="39.93616" lon="-6.00097">
      <ele>377.403</ele>
      <time>2018-03-20T12:28:18.733Z</time>
    </trkpt>
    <trkpt lat="39.93599" lon="-6.00056">
      <ele>377.436</ele>
      <time>2018-03-20T12:28:18.733Z</time>
    </trkpt>
    <trkpt lat="39.93594" lon="-6.00042">
      <ele>377.616</ele>
      <time>2018-03-20T12:28:18.733Z</time>
    </trkpt>
    <trkpt lat="39.93585" lon="-6.00017">
      <ele>377.917</ele>
      <time>2018-03-20T12:28:18.733Z</time>
    </trkpt>
    <trkpt lat="39.93574" lon="-5.99988">
      <ele>379.008</ele>
      <time>2018-03-20T12:28:18.733Z</time>
    </trkpt>
    <trkpt lat="39.93569" lon="-5.99971">
      <ele>379.46</ele>
      <time>2018-03-20T12:28:18.733Z</time>
    </trkpt>
    <trkpt lat="39.93557" lon="-5.99939">
      <ele>378.472</ele>
      <time>2018-03-20T12:28:18.733Z</time>
    </trkpt>
    <trkpt lat="39.93553" lon="-5.99927">
      <ele>377.928</ele>
      <time>2018-03-20T12:28:18.733Z</time>
    </trkpt>
    <trkpt lat="39.93541" lon="-5.99892">
      <ele>377.16</ele>
      <time>2018-03-20T12:28:18.733Z</time>
    </trkpt>
    <trkpt lat="39.93533" lon="-5.9987">
      <ele>376.944</ele>
      <time>2018-03-20T12:28:18.734Z</time>
    </trkpt>
    <trkpt lat="39.9352" lon="-5.99834">
      <ele>377.287</ele>
      <time>2018-03-20T12:28:18.734Z</time>
    </trkpt>
    <trkpt lat="39.93514" lon="-5.99822">
      <ele>377.085</ele>
      <time>2018-03-20T12:28:18.734Z</time>
    </trkpt>
    <trkpt lat="39.9351" lon="-5.99816">
      <ele>377.191</ele>
      <time>2018-03-20T12:28:18.734Z</time>
    </trkpt>
    <trkpt lat="39.93497" lon="-5.99794">
      <ele>377.863</ele>
      <time>2018-03-20T12:28:18.734Z</time>
    </trkpt>
    <trkpt lat="39.93484" lon="-5.9977">
      <ele>377.711</ele>
      <time>2018-03-20T12:28:18.734Z</time>
    </trkpt>
    <trkpt lat="39.93482" lon="-5.99764">
      <ele>377.479</ele>
      <time>2018-03-20T12:28:18.734Z</time>
    </trkpt>
    <trkpt lat="39.93477" lon="-5.9974">
      <ele>376.406</ele>
      <time>2018-03-20T12:28:18.734Z</time>
    </trkpt>
    <trkpt lat="39.93472" lon="-5.99721">
      <ele>375.912</ele>
      <time>2018-03-20T12:28:18.734Z</time>
    </trkpt>
    <trkpt lat="39.93468" lon="-5.99707">
      <ele>374.987</ele>
      <time>2018-03-20T12:28:18.734Z</time>
    </trkpt>
    <trkpt lat="39.93466" lon="-5.99702">
      <ele>374.707</ele>
      <time>2018-03-20T12:28:18.734Z</time>
    </trkpt>
    <trkpt lat="39.93454" lon="-5.99674">
      <ele>374.173</ele>
      <time>2018-03-20T12:28:18.734Z</time>
    </trkpt>
    <trkpt lat="39.93446" lon="-5.99653">
      <ele>373.508</ele>
      <time>2018-03-20T12:28:18.734Z</time>
    </trkpt>
    <trkpt lat="39.93429" lon="-5.9961">
      <ele>373.498</ele>
      <time>2018-03-20T12:28:18.735Z</time>
    </trkpt>
    <trkpt lat="39.93421" lon="-5.99593">
      <ele>373.09</ele>
      <time>2018-03-20T12:28:18.735Z</time>
    </trkpt>
    <trkpt lat="39.93406" lon="-5.99559">
      <ele>372.556</ele>
      <time>2018-03-20T12:28:18.735Z</time>
    </trkpt>
    <trkpt lat="39.9339" lon="-5.99517">
      <ele>371.532</ele>
      <time>2018-03-20T12:28:18.735Z</time>
    </trkpt>
    <trkpt lat="39.93381" lon="-5.99502">
      <ele>371.64</ele>
      <time>2018-03-20T12:28:18.735Z</time>
    </trkpt>
    <trkpt lat="39.93371" lon="-5.99483">
      <ele>371.894</ele>
      <time>2018-03-20T12:28:18.735Z</time>
    </trkpt>
    <trkpt lat="39.93361" lon="-5.99465">
      <ele>372.007</ele>
      <time>2018-03-20T12:28:18.735Z</time>
    </trkpt>
    <trkpt lat="39.93347" lon="-5.99441">
      <ele>372.445</ele>
      <time>2018-03-20T12:28:18.735Z</time>
    </trkpt>
    <trkpt lat="39.9333" lon="-5.99416">
      <ele>372.096</ele>
      <time>2018-03-20T12:28:18.735Z</time>
    </trkpt>
    <trkpt lat="39.93309" lon="-5.99384">
      <ele>371.546</ele>
      <time>2018-03-20T12:28:18.735Z</time>
    </trkpt>
    <trkpt lat="39.93301" lon="-5.9937">
      <ele>370.588</ele>
      <time>2018-03-20T12:28:18.735Z</time>
    </trkpt>
    <trkpt lat="39.93281" lon="-5.9934">
      <ele>369.24</ele>
      <time>2018-03-20T12:28:18.735Z</time>
    </trkpt>
    <trkpt lat="39.93276" lon="-5.99331">
      <ele>368.985</ele>
      <time>2018-03-20T12:28:18.735Z</time>
    </trkpt>
    <trkpt lat="39.93266" lon="-5.99319">
      <ele>369.127</ele>
      <time>2018-03-20T12:28:18.735Z</time>
    </trkpt>
    <trkpt lat="39.93254" lon="-5.99303">
      <ele>369.725</ele>
      <time>2018-03-20T12:28:18.736Z</time>
    </trkpt>
    <trkpt lat="39.9322" lon="-5.99264">
      <ele>371.04</ele>
      <time>2018-03-20T12:28:18.736Z</time>
    </trkpt>
    <trkpt lat="39.93198" lon="-5.99239">
      <ele>370.655</ele>
      <time>2018-03-20T12:28:18.736Z</time>
    </trkpt>
    <trkpt lat="39.9318" lon="-5.99217">
      <ele>369.194</ele>
      <time>2018-03-20T12:28:18.736Z</time>
    </trkpt>
    <trkpt lat="39.93168" lon="-5.99204">
      <ele>367.767</ele>
      <time>2018-03-20T12:28:18.736Z</time>
    </trkpt>
    <trkpt lat="39.93139" lon="-5.9917">
      <ele>366.124</ele>
      <time>2018-03-20T12:28:18.736Z</time>
    </trkpt>
    <trkpt lat="39.93118" lon="-5.99148">
      <ele>363.824</ele>
      <time>2018-03-20T12:28:18.736Z</time>
    </trkpt>
    <trkpt lat="39.93086" lon="-5.99113">
      <ele>362.068</ele>
      <time>2018-03-20T12:28:18.736Z</time>
    </trkpt>
    <trkpt lat="39.93079" lon="-5.99104">
      <ele>362.196</ele>
      <time>2018-03-20T12:28:18.736Z</time>
    </trkpt>
    <trkpt lat="39.93068" lon="-5.99094">
      <ele>362.892</ele>
      <time>2018-03-20T12:28:18.736Z</time>
    </trkpt>
    <trkpt lat="39.93046" lon="-5.9907">
      <ele>363.656</ele>
      <time>2018-03-20T12:28:18.736Z</time>
    </trkpt>
    <trkpt lat="39.93037" lon="-5.99062">
      <ele>363.332</ele>
      <time>2018-03-20T12:28:18.736Z</time>
    </trkpt>
    <trkpt lat="39.93026" lon="-5.99055">
      <ele>362.872</ele>
      <time>2018-03-20T12:28:18.736Z</time>
    </trkpt>
    <trkpt lat="39.93011" lon="-5.99045">
      <ele>361.792</ele>
      <time>2018-03-20T12:28:18.737Z</time>
    </trkpt>
    <trkpt lat="39.92999" lon="-5.99037">
      <ele>360.916</ele>
      <time>2018-03-20T12:28:18.737Z</time>
    </trkpt>
    <trkpt lat="39.92987" lon="-5.99029">
      <ele>360.043</ele>
      <time>2018-03-20T12:28:18.737Z</time>
    </trkpt>
    <trkpt lat="39.92978" lon="-5.99017">
      <ele>359.804</ele>
      <time>2018-03-20T12:28:18.737Z</time>
    </trkpt>
    <trkpt lat="39.92957" lon="-5.98996">
      <ele>358.983</ele>
      <time>2018-03-20T12:28:18.737Z</time>
    </trkpt>
    <trkpt lat="39.92947" lon="-5.98984">
      <ele>358.707</ele>
      <time>2018-03-20T12:28:18.737Z</time>
    </trkpt>
    <trkpt lat="39.92935" lon="-5.9897">
      <ele>358.687</ele>
      <time>2018-03-20T12:28:18.737Z</time>
    </trkpt>
    <trkpt lat="39.92923" lon="-5.98956">
      <ele>358.679</ele>
      <time>2018-03-20T12:28:18.737Z</time>
    </trkpt>
    <trkpt lat="39.92912" lon="-5.98943">
      <ele>358.681</ele>
      <time>2018-03-20T12:28:18.737Z</time>
    </trkpt>
    <trkpt lat="39.92899" lon="-5.98928">
      <ele>358.481</ele>
      <time>2018-03-20T12:28:18.737Z</time>
    </trkpt>
    <trkpt lat="39.92856" lon="-5.98881">
      <ele>358.269</ele>
      <time>2018-03-20T12:28:18.737Z</time>
    </trkpt>
    <trkpt lat="39.92845" lon="-5.9887">
      <ele>357.369</ele>
      <time>2018-03-20T12:28:18.737Z</time>
    </trkpt>
    <trkpt lat="39.92808" lon="-5.98833">
      <ele>356.188</ele>
      <time>2018-03-20T12:28:18.737Z</time>
    </trkpt>
    <trkpt lat="39.92792" lon="-5.98816">
      <ele>355.16</ele>
      <time>2018-03-20T12:28:18.738Z</time>
    </trkpt>
    <trkpt lat="39.92768" lon="-5.98792">
      <ele>353.964</ele>
      <time>2018-03-20T12:28:18.738Z</time>
    </trkpt>
    <trkpt lat="39.92751" lon="-5.98774">
      <ele>353.072</ele>
      <time>2018-03-20T12:28:18.738Z</time>
    </trkpt>
    <trkpt lat="39.92738" lon="-5.98761">
      <ele>352.568</ele>
      <time>2018-03-20T12:28:18.738Z</time>
    </trkpt>
    <trkpt lat="39.92709" lon="-5.98733">
      <ele>351.631</ele>
      <time>2018-03-20T12:28:18.738Z</time>
    </trkpt>
    <trkpt lat="39.92695" lon="-5.98719">
      <ele>352.002</ele>
      <time>2018-03-20T12:28:18.738Z</time>
    </trkpt>
    <trkpt lat="39.92675" lon="-5.98698">
      <ele>351.21</ele>
      <time>2018-03-20T12:28:18.738Z</time>
    </trkpt>
    <trkpt lat="39.92653" lon="-5.98674">
      <ele>350.508</ele>
      <time>2018-03-20T12:28:18.738Z</time>
    </trkpt>
    <trkpt lat="39.92636" lon="-5.98657">
      <ele>349.932</ele>
      <time>2018-03-20T12:28:18.738Z</time>
    </trkpt>
    <trkpt lat="39.9261" lon="-5.98633">
      <ele>350.212</ele>
      <time>2018-03-20T12:28:18.738Z</time>
    </trkpt>
    <trkpt lat="39.92589" lon="-5.98615">
      <ele>350.86</ele>
      <time>2018-03-20T12:28:18.738Z</time>
    </trkpt>
    <trkpt lat="39.92577" lon="-5.98605">
      <ele>350.544</ele>
      <time>2018-03-20T12:28:18.738Z</time>
    </trkpt>
    <trkpt lat="39.92559" lon="-5.9859">
      <ele>349.248</ele>
      <time>2018-03-20T12:28:18.738Z</time>
    </trkpt>
    <trkpt lat="39.92535" lon="-5.9857">
      <ele>346.915</ele>
      <time>2018-03-20T12:28:18.739Z</time>
    </trkpt>
    <trkpt lat="39.92521" lon="-5.98558">
      <ele>346.067</ele>
      <time>2018-03-20T12:28:18.739Z</time>
    </trkpt>
    <trkpt lat="39.92507" lon="-5.98543">
      <ele>346.452</ele>
      <time>2018-03-20T12:28:18.739Z</time>
    </trkpt>
    <trkpt lat="39.92499" lon="-5.98532">
      <ele>346.884</ele>
      <time>2018-03-20T12:28:18.739Z</time>
    </trkpt>
    <trkpt lat="39.92486" lon="-5.98514">
      <ele>347.75</ele>
      <time>2018-03-20T12:28:18.739Z</time>
    </trkpt>
    <trkpt lat="39.9248" lon="-5.98506">
      <ele>347.94</ele>
      <time>2018-03-20T12:28:18.739Z</time>
    </trkpt>
    <trkpt lat="39.92471" lon="-5.98495">
      <ele>347.992</ele>
      <time>2018-03-20T12:28:18.739Z</time>
    </trkpt>
    <trkpt lat="39.92464" lon="-5.98489">
      <ele>347.883</ele>
      <time>2018-03-20T12:28:18.739Z</time>
    </trkpt>
    <trkpt lat="39.92454" lon="-5.98481">
      <ele>347.551</ele>
      <time>2018-03-20T12:28:18.739Z</time>
    </trkpt>
    <trkpt lat="39.92441" lon="-5.98473">
      <ele>347.025</ele>
      <time>2018-03-20T12:28:18.739Z</time>
    </trkpt>
    <trkpt lat="39.92429" lon="-5.98465">
      <ele>347.0</ele>
      <time>2018-03-20T12:28:18.739Z</time>
    </trkpt>
    <trkpt lat="39.92415" lon="-5.98453">
      <ele>346.94</ele>
      <time>2018-03-20T12:28:18.74Z</time>
    </trkpt>
    <trkpt lat="39.92408" lon="-5.98445">
      <ele>346.688</ele>
      <time>2018-03-20T12:28:18.74Z</time>
    </trkpt>
    <trkpt lat="39.92399" lon="-5.98435">
      <ele>346.24</ele>
      <time>2018-03-20T12:28:18.74Z</time>
    </trkpt>
    <trkpt lat="39.92388" lon="-5.9842">
      <ele>345.968</ele>
      <time>2018-03-20T12:28:18.74Z</time>
    </trkpt>
    <trkpt lat="39.92375" lon="-5.98397">
      <ele>345.854</ele>
      <time>2018-03-20T12:28:18.74Z</time>
    </trkpt>
    <trkpt lat="39.92361" lon="-5.98371">
      <ele>346.641</ele>
      <time>2018-03-20T12:28:18.74Z</time>
    </trkpt>
    <trkpt lat="39.92353" lon="-5.98362">
      <ele>346.685</ele>
      <time>2018-03-20T12:28:18.74Z</time>
    </trkpt>
    <trkpt lat="39.92347" lon="-5.98355">
      <ele>346.492</ele>
      <time>2018-03-20T12:28:18.74Z</time>
    </trkpt>
    <trkpt lat="39.92337" lon="-5.98344">
      <ele>346.132</ele>
      <time>2018-03-20T12:28:18.74Z</time>
    </trkpt>
    <trkpt lat="39.92318" lon="-5.98325">
      <ele>345.834</ele>
      <time>2018-03-20T12:28:18.741Z</time>
    </trkpt>
    <trkpt lat="39.9229" lon="-5.98298">
      <ele>344.848</ele>
      <time>2018-03-20T12:28:18.741Z</time>
    </trkpt>
    <trkpt lat="39.92265" lon="-5.98274">
      <ele>343.54</ele>
      <time>2018-03-20T12:28:18.741Z</time>
    </trkpt>
    <trkpt lat="39.92251" lon="-5.98259">
      <ele>343.036</ele>
      <time>2018-03-20T12:28:18.741Z</time>
    </trkpt>
    <trkpt lat="39.92235" lon="-5.98241">
      <ele>342.46</ele>
      <time>2018-03-20T12:28:18.741Z</time>
    </trkpt>
    <trkpt lat="39.92216" lon="-5.98221">
      <ele>342.0</ele>
      <time>2018-03-20T12:28:18.741Z</time>
    </trkpt>
    <trkpt lat="39.92207" lon="-5.98213">
      <ele>342.0</ele>
      <time>2018-03-20T12:28:18.741Z</time>
    </trkpt>
    <trkpt lat="39.92177" lon="-5.98182">
      <ele>342.0</ele>
      <time>2018-03-20T12:28:18.741Z</time>
    </trkpt>
    <trkpt lat="39.92157" lon="-5.98161">
      <ele>342.062</ele>
      <time>2018-03-20T12:28:18.741Z</time>
    </trkpt>
    <trkpt lat="39.92141" lon="-5.98146">
      <ele>341.369</ele>
      <time>2018-03-20T12:28:18.741Z</time>
    </trkpt>
    <trkpt lat="39.92112" lon="-5.98115">
      <ele>339.172</ele>
      <time>2018-03-20T12:28:18.741Z</time>
    </trkpt>
    <trkpt lat="39.92089" lon="-5.98092">
      <ele>338.312</ele>
      <time>2018-03-20T12:28:18.741Z</time>
    </trkpt>
    <trkpt lat="39.92062" lon="-5.98066">
      <ele>338.0</ele>
      <time>2018-03-20T12:28:18.741Z</time>
    </trkpt>
    <trkpt lat="39.92032" lon="-5.98038">
      <ele>337.152</ele>
      <time>2018-03-20T12:28:18.742Z</time>
    </trkpt>
    <trkpt lat="39.92014" lon="-5.98021">
      <ele>336.625</ele>
      <time>2018-03-20T12:28:18.742Z</time>
    </trkpt>
    <trkpt lat="39.92002" lon="-5.98008">
      <ele>336.733</ele>
      <time>2018-03-20T12:28:18.742Z</time>
    </trkpt>
    <trkpt lat="39.91993" lon="-5.97998">
      <ele>336.748</ele>
      <time>2018-03-20T12:28:18.742Z</time>
    </trkpt>
    <trkpt lat="39.91962" lon="-5.97966">
      <ele>335.856</ele>
      <time>2018-03-20T12:28:18.742Z</time>
    </trkpt>
    <trkpt lat="39.91944" lon="-5.97945">
      <ele>335.948</ele>
      <time>2018-03-20T12:28:18.742Z</time>
    </trkpt>
    <trkpt lat="39.91923" lon="-5.97923">
      <ele>335.228</ele>
      <time>2018-03-20T12:28:18.742Z</time>
    </trkpt>
    <trkpt lat="39.91908" lon="-5.97908">
      <ele>335.0</ele>
      <time>2018-03-20T12:28:18.742Z</time>
    </trkpt>
    <trkpt lat="39.91884" lon="-5.9789">
      <ele>334.953</ele>
      <time>2018-03-20T12:28:18.742Z</time>
    </trkpt>
    <trkpt lat="39.91855" lon="-5.97868">
      <ele>335.697</ele>
      <time>2018-03-20T12:28:18.742Z</time>
    </trkpt>
    <trkpt lat="39.9183" lon="-5.9785">
      <ele>335.808</ele>
      <time>2018-03-20T12:28:18.742Z</time>
    </trkpt>
    <trkpt lat="39.91803" lon="-5.97832">
      <ele>334.864</ele>
      <time>2018-03-20T12:28:18.742Z</time>
    </trkpt>
    <trkpt lat="39.91777" lon="-5.97815">
      <ele>333.604</ele>
      <time>2018-03-20T12:28:18.742Z</time>
    </trkpt>
    <trkpt lat="39.91749" lon="-5.97796">
      <ele>332.248</ele>
      <time>2018-03-20T12:28:18.742Z</time>
    </trkpt>
    <trkpt lat="39.91728" lon="-5.97782">
      <ele>331.144</ele>
      <time>2018-03-20T12:28:18.743Z</time>
    </trkpt>
    <trkpt lat="39.91702" lon="-5.97767">
      <ele>331.154</ele>
      <time>2018-03-20T12:28:18.743Z</time>
    </trkpt>
    <trkpt lat="39.9168" lon="-5.97754">
      <ele>330.672</ele>
      <time>2018-03-20T12:28:18.743Z</time>
    </trkpt>
    <trkpt lat="39.91657" lon="-5.97741">
      <ele>330.3</ele>
      <time>2018-03-20T12:28:18.743Z</time>
    </trkpt>
    <trkpt lat="39.91594" lon="-5.97709">
      <ele>327.397</ele>
      <time>2018-03-20T12:28:18.743Z</time>
    </trkpt>
    <trkpt lat="39.91564" lon="-5.97693">
      <ele>326.66</ele>
      <time>2018-03-20T12:28:18.743Z</time>
    </trkpt>
    <trkpt lat="39.91554" lon="-5.97687">
      <ele>326.309</ele>
      <time>2018-03-20T12:28:18.743Z</time>
    </trkpt>
    <trkpt lat="39.9153" lon="-5.97673">
      <ele>326.982</ele>
      <time>2018-03-20T12:28:18.743Z</time>
    </trkpt>
    <trkpt lat="39.91495" lon="-5.97652">
      <ele>325.942</ele>
      <time>2018-03-20T12:28:18.743Z</time>
    </trkpt>
    <trkpt lat="39.91454" lon="-5.97628">
      <ele>323.08</ele>
      <time>2018-03-20T12:28:18.743Z</time>
    </trkpt>
    <trkpt lat="39.9144" lon="-5.97621">
      <ele>322.484</ele>
      <time>2018-03-20T12:28:18.743Z</time>
    </trkpt>
    <trkpt lat="39.91423" lon="-5.9761">
      <ele>322.268</ele>
      <time>2018-03-20T12:28:18.743Z</time>
    </trkpt>
    <trkpt lat="39.91387" lon="-5.97589">
      <ele>321.19</ele>
      <time>2018-03-20T12:28:18.743Z</time>
    </trkpt>
    <trkpt lat="39.91359" lon="-5.97575">
      <ele>320.947</ele>
      <time>2018-03-20T12:28:18.743Z</time>
    </trkpt>
    <trkpt lat="39.91327" lon="-5.97558">
      <ele>320.932</ele>
      <time>2018-03-20T12:28:18.744Z</time>
    </trkpt>
    <trkpt lat="39.91306" lon="-5.97546">
      <ele>320.667</ele>
      <time>2018-03-20T12:28:18.744Z</time>
    </trkpt>
    <trkpt lat="39.91276" lon="-5.97529">
      <ele>317.98</ele>
      <time>2018-03-20T12:28:18.744Z</time>
    </trkpt>
    <trkpt lat="39.91258" lon="-5.97518">
      <ele>316.936</ele>
      <time>2018-03-20T12:28:18.744Z</time>
    </trkpt>
    <trkpt lat="39.91228" lon="-5.975">
      <ele>317.584</ele>
      <time>2018-03-20T12:28:18.744Z</time>
    </trkpt>
    <trkpt lat="39.91201" lon="-5.97484">
      <ele>320.668</ele>
      <time>2018-03-20T12:28:18.744Z</time>
    </trkpt>
    <trkpt lat="39.91169" lon="-5.97465">
      <ele>324.844</ele>
      <time>2018-03-20T12:28:18.744Z</time>
    </trkpt>
    <trkpt lat="39.9115" lon="-5.97455">
      <ele>324.884</ele>
      <time>2018-03-20T12:28:18.744Z</time>
    </trkpt>
    <trkpt lat="39.91133" lon="-5.97447">
      <ele>324.88</ele>
      <time>2018-03-20T12:28:18.744Z</time>
    </trkpt>
    <trkpt lat="39.91115" lon="-5.97435">
      <ele>323.8</ele>
      <time>2018-03-20T12:28:18.744Z</time>
    </trkpt>
    <trkpt lat="39.91096" lon="-5.9742">
      <ele>322.576</ele>
      <time>2018-03-20T12:28:18.744Z</time>
    </trkpt>
    <trkpt lat="39.91083" lon="-5.97407">
      <ele>321.636</ele>
      <time>2018-03-20T12:28:18.744Z</time>
    </trkpt>
    <trkpt lat="39.91064" lon="-5.9739">
      <ele>319.676</ele>
      <time>2018-03-20T12:28:18.744Z</time>
    </trkpt>
    <trkpt lat="39.91039" lon="-5.9737">
      <ele>317.128</ele>
      <time>2018-03-20T12:28:18.745Z</time>
    </trkpt>
    <trkpt lat="39.91012" lon="-5.97349">
      <ele>314.676</ele>
      <time>2018-03-20T12:28:18.745Z</time>
    </trkpt>
    <trkpt lat="39.91001" lon="-5.9734">
      <ele>314.045</ele>
      <time>2018-03-20T12:28:18.745Z</time>
    </trkpt>
    <trkpt lat="39.90967" lon="-5.97317">
      <ele>311.812</ele>
      <time>2018-03-20T12:28:18.745Z</time>
    </trkpt>
    <trkpt lat="39.90957" lon="-5.9731">
      <ele>311.452</ele>
      <time>2018-03-20T12:28:18.745Z</time>
    </trkpt>
    <trkpt lat="39.90947" lon="-5.97301">
      <ele>311.241</ele>
      <time>2018-03-20T12:28:18.745Z</time>
    </trkpt>
    <trkpt lat="39.90938" lon="-5.97291">
      <ele>311.646</ele>
      <time>2018-03-20T12:28:18.745Z</time>
    </trkpt>
    <trkpt lat="39.90913" lon="-5.97264">
      <ele>312.8</ele>
      <time>2018-03-20T12:28:18.745Z</time>
    </trkpt>
    <trkpt lat="39.90899" lon="-5.97247">
      <ele>313.108</ele>
      <time>2018-03-20T12:28:18.745Z</time>
    </trkpt>
    <trkpt lat="39.90893" lon="-5.97239">
      <ele>313.396</ele>
      <time>2018-03-20T12:28:18.745Z</time>
    </trkpt>
    <trkpt lat="39.90888" lon="-5.9723">
      <ele>313.711</ele>
      <time>2018-03-20T12:28:18.745Z</time>
    </trkpt>
    <trkpt lat="39.90874" lon="-5.97211">
      <ele>314.217</ele>
      <time>2018-03-20T12:28:18.746Z</time>
    </trkpt>
    <trkpt lat="39.90854" lon="-5.97184">
      <ele>315.536</ele>
      <time>2018-03-20T12:28:18.746Z</time>
    </trkpt>
    <trkpt lat="39.9083" lon="-5.97149">
      <ele>315.88</ele>
      <time>2018-03-20T12:28:18.746Z</time>
    </trkpt>
    <trkpt lat="39.90799" lon="-5.97107">
      <ele>314.764</ele>
      <time>2018-03-20T12:28:18.746Z</time>
    </trkpt>
    <trkpt lat="39.90786" lon="-5.9709">
      <ele>314.296</ele>
      <time>2018-03-20T12:28:18.746Z</time>
    </trkpt>
    <trkpt lat="39.90764" lon="-5.97056">
      <ele>314.0</ele>
      <time>2018-03-20T12:28:18.746Z</time>
    </trkpt>
    <trkpt lat="39.90751" lon="-5.97036">
      <ele>314.0</ele>
      <time>2018-03-20T12:28:18.746Z</time>
    </trkpt>
    <trkpt lat="39.90733" lon="-5.97008">
      <ele>313.388</ele>
      <time>2018-03-20T12:28:18.746Z</time>
    </trkpt>
    <trkpt lat="39.90718" lon="-5.96982">
      <ele>313.0</ele>
      <time>2018-03-20T12:28:18.746Z</time>
    </trkpt>
    <trkpt lat="39.907" lon="-5.9695">
      <ele>313.16</ele>
      <time>2018-03-20T12:28:18.746Z</time>
    </trkpt>
    <trkpt lat="39.90688" lon="-5.96928">
      <ele>313.128</ele>
      <time>2018-03-20T12:28:18.746Z</time>
    </trkpt>
    <trkpt lat="39.90676" lon="-5.96905">
      <ele>312.951</ele>
      <time>2018-03-20T12:28:18.747Z</time>
    </trkpt>
    <trkpt lat="39.90672" lon="-5.96896">
      <ele>312.985</ele>
      <time>2018-03-20T12:28:18.747Z</time>
    </trkpt>
    <trkpt lat="39.90662" lon="-5.96869">
      <ele>312.952</ele>
      <time>2018-03-20T12:28:18.747Z</time>
    </trkpt>
    <trkpt lat="39.90644" lon="-5.96829">
      <ele>312.0</ele>
      <time>2018-03-20T12:28:18.747Z</time>
    </trkpt>
    <trkpt lat="39.90626" lon="-5.96792">
      <ele>313.19</ele>
      <time>2018-03-20T12:28:18.747Z</time>
    </trkpt>
    <trkpt lat="39.90616" lon="-5.96773">
      <ele>313.652</ele>
      <time>2018-03-20T12:28:18.747Z</time>
    </trkpt>
    <trkpt lat="39.90609" lon="-5.96756">
      <ele>313.428</ele>
      <time>2018-03-20T12:28:18.747Z</time>
    </trkpt>
    <trkpt lat="39.90598" lon="-5.96729">
      <ele>314.059</ele>
      <time>2018-03-20T12:28:18.747Z</time>
    </trkpt>
    <trkpt lat="39.90589" lon="-5.96701">
      <ele>313.984</ele>
      <time>2018-03-20T12:28:18.747Z</time>
    </trkpt>
    <trkpt lat="39.90573" lon="-5.96654">
      <ele>313.574</ele>
      <time>2018-03-20T12:28:18.748Z</time>
    </trkpt>
    <trkpt lat="39.9057" lon="-5.96645">
      <ele>313.586</ele>
      <time>2018-03-20T12:28:18.748Z</time>
    </trkpt>
    <trkpt lat="39.90557" lon="-5.96602">
      <ele>313.0</ele>
      <time>2018-03-20T12:28:18.748Z</time>
    </trkpt>
    <trkpt lat="39.90554" lon="-5.9659">
      <ele>313.056</ele>
      <time>2018-03-20T12:28:18.748Z</time>
    </trkpt>
    <trkpt lat="39.90541" lon="-5.96538">
      <ele>311.892</ele>
      <time>2018-03-20T12:28:18.748Z</time>
    </trkpt>
    <trkpt lat="39.90533" lon="-5.96493">
      <ele>310.372</ele>
      <time>2018-03-20T12:28:18.748Z</time>
    </trkpt>
    <trkpt lat="39.9053" lon="-5.9648">
      <ele>310.12</ele>
      <time>2018-03-20T12:28:18.748Z</time>
    </trkpt>
    <trkpt lat="39.90528" lon="-5.96463">
      <ele>309.323</ele>
      <time>2018-03-20T12:28:18.748Z</time>
    </trkpt>
    <trkpt lat="39.90525" lon="-5.96437">
      <ele>307.978</ele>
      <time>2018-03-20T12:28:18.748Z</time>
    </trkpt>
    <trkpt lat="39.90524" lon="-5.96426">
      <ele>307.563</ele>
      <time>2018-03-20T12:28:18.749Z</time>
    </trkpt>
    <trkpt lat="39.9052" lon="-5.9639">
      <ele>305.629</ele>
      <time>2018-03-20T12:28:18.749Z</time>
    </trkpt>
    <trkpt lat="39.90517" lon="-5.9637">
      <ele>305.096</ele>
      <time>2018-03-20T12:28:18.749Z</time>
    </trkpt>
    <trkpt lat="39.90513" lon="-5.96337">
      <ele>304.196</ele>
      <time>2018-03-20T12:28:18.749Z</time>
    </trkpt>
    <trkpt lat="39.90511" lon="-5.96314">
      <ele>303.092</ele>
      <time>2018-03-20T12:28:18.751Z</time>
    </trkpt>
    <trkpt lat="39.90506" lon="-5.96268">
      <ele>300.724</ele>
      <time>2018-03-20T12:28:18.751Z</time>
    </trkpt>
    <trkpt lat="39.90505" lon="-5.96257">
      <ele>300.387</ele>
      <time>2018-03-20T12:28:18.751Z</time>
    </trkpt>
    <trkpt lat="39.905" lon="-5.96207">
      <ele>300.0</ele>
      <time>2018-03-20T12:28:18.751Z</time>
    </trkpt>
    <trkpt lat="39.90498" lon="-5.96167">
      <ele>299.857</ele>
      <time>2018-03-20T12:28:18.751Z</time>
    </trkpt>
    <trkpt lat="39.90496" lon="-5.9613">
      <ele>298.68</ele>
      <time>2018-03-20T12:28:18.751Z</time>
    </trkpt>
    <trkpt lat="39.90495" lon="-5.96091">
      <ele>297.276</ele>
      <time>2018-03-20T12:28:18.751Z</time>
    </trkpt>
    <trkpt lat="39.90496" lon="-5.96056">
      <ele>297.0</ele>
      <time>2018-03-20T12:28:18.751Z</time>
    </trkpt>
    <trkpt lat="39.90497" lon="-5.96036">
      <ele>297.0</ele>
      <time>2018-03-20T12:28:18.751Z</time>
    </trkpt>
    <trkpt lat="39.90499" lon="-5.96012">
      <ele>297.0</ele>
      <time>2018-03-20T12:28:18.751Z</time>
    </trkpt>
    <trkpt lat="39.905" lon="-5.95985">
      <ele>296.46</ele>
      <time>2018-03-20T12:28:18.752Z</time>
    </trkpt>
    <trkpt lat="39.905" lon="-5.95951">
      <ele>295.236</ele>
      <time>2018-03-20T12:28:18.752Z</time>
    </trkpt>
    <trkpt lat="39.90502" lon="-5.9593">
      <ele>295.627</ele>
      <time>2018-03-20T12:28:18.752Z</time>
    </trkpt>
    <trkpt lat="39.90503" lon="-5.95922">
      <ele>295.937</ele>
      <time>2018-03-20T12:28:18.752Z</time>
    </trkpt>
    <trkpt lat="39.90506" lon="-5.95882">
      <ele>297.496</ele>
      <time>2018-03-20T12:28:18.752Z</time>
    </trkpt>
    <trkpt lat="39.90508" lon="-5.95865">
      <ele>298.72</ele>
      <time>2018-03-20T12:28:18.752Z</time>
    </trkpt>
    <trkpt lat="39.9051" lon="-5.95855">
      <ele>299.079</ele>
      <time>2018-03-20T12:28:18.752Z</time>
    </trkpt>
    <trkpt lat="39.90509" lon="-5.95851">
      <ele>299.118</ele>
      <time>2018-03-20T12:28:18.752Z</time>
    </trkpt>
    <trkpt lat="39.90508" lon="-5.95846">
      <ele>299.157</ele>
      <time>2018-03-20T12:28:18.752Z</time>
    </trkpt>
    <trkpt lat="39.90506" lon="-5.95843">
      <ele>299.141</ele>
      <time>2018-03-20T12:28:18.752Z</time>
    </trkpt>
    <trkpt lat="39.90502" lon="-5.95839">
      <ele>299.057</ele>
      <time>2018-03-20T12:28:18.752Z</time>
    </trkpt>
    <trkpt lat="39.90492" lon="-5.95834">
      <ele>298.712</ele>
      <time>2018-03-20T12:28:18.752Z</time>
    </trkpt>
    <trkpt lat="39.90485" lon="-5.9583">
      <ele>298.46</ele>
      <time>2018-03-20T12:28:18.753Z</time>
    </trkpt>
    <trkpt lat="39.90477" lon="-5.95824">
      <ele>298.172</ele>
      <time>2018-03-20T12:28:18.753Z</time>
    </trkpt>
    <trkpt lat="39.90466" lon="-5.95814">
      <ele>297.708</ele>
      <time>2018-03-20T12:28:18.753Z</time>
    </trkpt>
    <trkpt lat="39.90449" lon="-5.95794">
      <ele>297.164</ele>
      <time>2018-03-20T12:28:18.753Z</time>
    </trkpt>
    <trkpt lat="39.90434" lon="-5.95777">
      <ele>297.0</ele>
      <time>2018-03-20T12:28:18.753Z</time>
    </trkpt>
    <trkpt lat="39.90428" lon="-5.95768">
      <ele>297.0</ele>
      <time>2018-03-20T12:28:18.753Z</time>
    </trkpt>
    <trkpt lat="39.90428" lon="-5.95765">
      <ele>297.0</ele>
      <time>2018-03-20T12:28:18.753Z</time>
    </trkpt>
    <trkpt lat="39.90431" lon="-5.95763">
      <ele>297.0</ele>
      <time>2018-03-20T12:28:18.753Z</time>
    </trkpt>
    <trkpt lat="39.90437" lon="-5.95763">
      <ele>297.0</ele>
      <time>2018-03-20T12:28:18.753Z</time>
    </trkpt>
    <trkpt lat="39.90444" lon="-5.95769">
      <ele>297.0</ele>
      <time>2018-03-20T12:28:18.753Z</time>
    </trkpt>
    <trkpt lat="39.90455" lon="-5.95786">
      <ele>297.38</ele>
      <time>2018-03-20T12:28:18.753Z</time>
    </trkpt>
    <trkpt lat="39.90469" lon="-5.95801">
      <ele>297.884</ele>
      <time>2018-03-20T12:28:18.754Z</time>
    </trkpt>
    <trkpt lat="39.90475" lon="-5.95805">
      <ele>298.096</ele>
      <time>2018-03-20T12:28:18.754Z</time>
    </trkpt>
    <trkpt lat="39.90495" lon="-5.95813">
      <ele>298.82</ele>
      <time>2018-03-20T12:28:18.754Z</time>
    </trkpt>
    <trkpt lat="39.90519" lon="-5.95819">
      <ele>299.331</ele>
      <time>2018-03-20T12:28:18.754Z</time>
    </trkpt>
    <trkpt lat="39.90544" lon="-5.95824">
      <ele>299.664</ele>
      <time>2018-03-20T12:28:18.754Z</time>
    </trkpt>
    <trkpt lat="39.9055" lon="-5.95829">
      <ele>299.844</ele>
      <time>2018-03-20T12:28:18.754Z</time>
    </trkpt>
    <trkpt lat="39.90556" lon="-5.95837">
      <ele>300.016</ele>
      <time>2018-03-20T12:28:18.754Z</time>
    </trkpt>
    <trkpt lat="39.90563" lon="-5.95851">
      <ele>300.268</ele>
      <time>2018-03-20T12:28:18.754Z</time>
    </trkpt>
    <trkpt lat="39.90568" lon="-5.95863">
      <ele>300.38</ele>
      <time>2018-03-20T12:28:18.754Z</time>
    </trkpt>
    <trkpt lat="39.90575" lon="-5.95874">
      <ele>300.236</ele>
      <time>2018-03-20T12:28:18.754Z</time>
    </trkpt>
    <trkpt lat="39.90579" lon="-5.9588">
      <ele>300.164</ele>
      <time>2018-03-20T12:28:18.755Z</time>
    </trkpt>
    <trkpt lat="39.90582" lon="-5.95882">
      <ele>300.2</ele>
      <time>2018-03-20T12:28:18.755Z</time>
    </trkpt>
    <trkpt lat="39.90588" lon="-5.95883">
      <ele>300.212</ele>
      <time>2018-03-20T12:28:18.755Z</time>
    </trkpt>
    <trkpt lat="39.9059" lon="-5.95882">
      <ele>300.248</ele>
      <time>2018-03-20T12:28:18.755Z</time>
    </trkpt>
    <trkpt lat="39.90592" lon="-5.95881">
      <ele>300.284</ele>
      <time>2018-03-20T12:28:18.755Z</time>
    </trkpt>
    <trkpt lat="39.90593" lon="-5.95879">
      <ele>300.356</ele>
      <time>2018-03-20T12:28:18.755Z</time>
    </trkpt>
  </trkseg>
  <trkseg>
    <trkpt lat="39.90593" lon="-5.95879">
      <ele>300.356</ele>
      <time>2018-03-20T12:28:18.755Z</time>
    </trkpt>
    <trkpt lat="39.90593" lon="-5.95875">
      <ele>300.5</ele>
      <time>2018-03-20T12:28:18.755Z</time>
    </trkpt>
    <trkpt lat="39.9059" lon="-5.95863">
      <ele>300.932</ele>
      <time>2018-03-20T12:28:18.755Z</time>
    </trkpt>
    <trkpt lat="39.90587" lon="-5.95848">
      <ele>301.0</ele>
      <time>2018-03-20T12:28:18.755Z</time>
    </trkpt>
    <trkpt lat="39.90584" lon="-5.95833">
      <ele>301.0</ele>
      <time>2018-03-20T12:28:18.755Z</time>
    </trkpt>
    <trkpt lat="39.9058" lon="-5.95808">
      <ele>300.771</ele>
      <time>2018-03-20T12:28:18.756Z</time>
    </trkpt>
    <trkpt lat="39.90576" lon="-5.95772">
      <ele>299.945</ele>
      <time>2018-03-20T12:28:18.756Z</time>
    </trkpt>
    <trkpt lat="39.90575" lon="-5.95747">
      <ele>298.692</ele>
      <time>2018-03-20T12:28:18.756Z</time>
    </trkpt>
    <trkpt lat="39.90575" lon="-5.95738">
      <ele>298.368</ele>
      <time>2018-03-20T12:28:18.756Z</time>
    </trkpt>
    <trkpt lat="39.90575" lon="-5.95714">
      <ele>297.297</ele>
      <time>2018-03-20T12:28:18.756Z</time>
    </trkpt>
    <trkpt lat="39.90578" lon="-5.95684">
      <ele>296.048</ele>
      <time>2018-03-20T12:28:18.756Z</time>
    </trkpt>
    <trkpt lat="39.9058" lon="-5.95668">
      <ele>295.688</ele>
      <time>2018-03-20T12:28:18.756Z</time>
    </trkpt>
    <trkpt lat="39.90584" lon="-5.95644">
      <ele>295.212</ele>
      <time>2018-03-20T12:28:18.756Z</time>
    </trkpt>
    <trkpt lat="39.9059" lon="-5.95612">
      <ele>295.24</ele>
      <time>2018-03-20T12:28:18.756Z</time>
    </trkpt>
    <trkpt lat="39.90595" lon="-5.95591">
      <ele>295.42</ele>
      <time>2018-03-20T12:28:18.756Z</time>
    </trkpt>
    <trkpt lat="39.90607" lon="-5.95559">
      <ele>294.23</ele>
      <time>2018-03-20T12:28:18.756Z</time>
    </trkpt>
    <trkpt lat="39.90619" lon="-5.9553">
      <ele>292.421</ele>
      <time>2018-03-20T12:28:18.757Z</time>
    </trkpt>
    <trkpt lat="39.90625" lon="-5.95516">
      <ele>292.076</ele>
      <time>2018-03-20T12:28:18.757Z</time>
    </trkpt>
    <trkpt lat="39.9064" lon="-5.95491">
      <ele>292.013</ele>
      <time>2018-03-20T12:28:18.757Z</time>
    </trkpt>
    <trkpt lat="39.90651" lon="-5.95472">
      <ele>292.436</ele>
      <time>2018-03-20T12:28:18.757Z</time>
    </trkpt>
    <trkpt lat="39.90661" lon="-5.95458">
      <ele>292.796</ele>
      <time>2018-03-20T12:28:18.757Z</time>
    </trkpt>
    <trkpt lat="39.90672" lon="-5.95445">
      <ele>292.808</ele>
      <time>2018-03-20T12:28:18.757Z</time>
    </trkpt>
    <trkpt lat="39.90697" lon="-5.95414">
      <ele>291.812</ele>
      <time>2018-03-20T12:28:18.757Z</time>
    </trkpt>
    <trkpt lat="39.90713" lon="-5.954">
      <ele>290.732</ele>
      <time>2018-03-20T12:28:18.757Z</time>
    </trkpt>
    <trkpt lat="39.90739" lon="-5.95381">
      <ele>289.828</ele>
      <time>2018-03-20T12:28:18.757Z</time>
    </trkpt>
    <trkpt lat="39.90761" lon="-5.95366">
      <ele>289.176</ele>
      <time>2018-03-20T12:28:18.757Z</time>
    </trkpt>
    <trkpt lat="39.90809" lon="-5.95333">
      <ele>287.976</ele>
      <time>2018-03-20T12:28:18.757Z</time>
    </trkpt>
    <trkpt lat="39.90843" lon="-5.9531">
      <ele>286.612</ele>
      <time>2018-03-20T12:28:18.757Z</time>
    </trkpt>
    <trkpt lat="39.90889" lon="-5.95278">
      <ele>287.008</ele>
      <time>2018-03-20T12:28:18.757Z</time>
    </trkpt>
    <trkpt lat="39.90918" lon="-5.95257">
      <ele>286.252</ele>
      <time>2018-03-20T12:28:18.758Z</time>
    </trkpt>
    <trkpt lat="39.90943" lon="-5.9524">
      <ele>285.64</ele>
      <time>2018-03-20T12:28:18.758Z</time>
    </trkpt>
    <trkpt lat="39.90972" lon="-5.9522">
      <ele>284.92</ele>
      <time>2018-03-20T12:28:18.758Z</time>
    </trkpt>
    <trkpt lat="39.91025" lon="-5.95184">
      <ele>282.386</ele>
      <time>2018-03-20T12:28:18.758Z</time>
    </trkpt>
    <trkpt lat="39.91061" lon="-5.95159">
      <ele>280.724</ele>
      <time>2018-03-20T12:28:18.758Z</time>
    </trkpt>
    <trkpt lat="39.9108" lon="-5.95146">
      <ele>280.256</ele>
      <time>2018-03-20T12:28:18.758Z</time>
    </trkpt>
    <trkpt lat="39.91113" lon="-5.95123">
      <ele>279.331</ele>
      <time>2018-03-20T12:28:18.758Z</time>
    </trkpt>
    <trkpt lat="39.91161" lon="-5.9509">
      <ele>277.204</ele>
      <time>2018-03-20T12:28:18.758Z</time>
    </trkpt>
    <trkpt lat="39.91207" lon="-5.95059">
      <ele>279.712</ele>
      <time>2018-03-20T12:28:18.758Z</time>
    </trkpt>
    <trkpt lat="39.91233" lon="-5.95041">
      <ele>281.505</ele>
      <time>2018-03-20T12:28:18.758Z</time>
    </trkpt>
    <trkpt lat="39.91281" lon="-5.95008">
      <ele>280.404</ele>
      <time>2018-03-20T12:28:18.758Z</time>
    </trkpt>
    <trkpt lat="39.913" lon="-5.94995">
      <ele>280.8</ele>
      <time>2018-03-20T12:28:18.758Z</time>
    </trkpt>
    <trkpt lat="39.91341" lon="-5.94967">
      <ele>281.624</ele>
      <time>2018-03-20T12:28:18.758Z</time>
    </trkpt>
    <trkpt lat="39.91359" lon="-5.94956">
      <ele>280.832</ele>
      <time>2018-03-20T12:28:18.758Z</time>
    </trkpt>
    <trkpt lat="39.91375" lon="-5.94947">
      <ele>279.73</ele>
      <time>2018-03-20T12:28:18.759Z</time>
    </trkpt>
    <trkpt lat="39.91394" lon="-5.94938">
      <ele>278.352</ele>
      <time>2018-03-20T12:28:18.759Z</time>
    </trkpt>
    <trkpt lat="39.91427" lon="-5.94925">
      <ele>276.377</ele>
      <time>2018-03-20T12:28:18.759Z</time>
    </trkpt>
    <trkpt lat="39.91443" lon="-5.9492">
      <ele>276.012</ele>
      <time>2018-03-20T12:28:18.759Z</time>
    </trkpt>
    <trkpt lat="39.91465" lon="-5.94914">
      <ele>275.833</ele>
      <time>2018-03-20T12:28:18.759Z</time>
    </trkpt>
    <trkpt lat="39.91474" lon="-5.94913">
      <ele>275.672</ele>
      <time>2018-03-20T12:28:18.759Z</time>
    </trkpt>
    <trkpt lat="39.91524" lon="-5.94907">
      <ele>273.177</ele>
      <time>2018-03-20T12:28:18.759Z</time>
    </trkpt>
    <trkpt lat="39.91549" lon="-5.94905">
      <ele>274.207</ele>
      <time>2018-03-20T12:28:18.759Z</time>
    </trkpt>
    <trkpt lat="39.91616" lon="-5.94902">
      <ele>273.592</ele>
      <time>2018-03-20T12:28:18.76Z</time>
    </trkpt>
    <trkpt lat="39.91671" lon="-5.94898">
      <ele>271.812</ele>
      <time>2018-03-20T12:28:18.76Z</time>
    </trkpt>
    <trkpt lat="39.91699" lon="-5.94894">
      <ele>272.368</ele>
      <time>2018-03-20T12:28:18.76Z</time>
    </trkpt>
    <trkpt lat="39.91707" lon="-5.94892">
      <ele>272.224</ele>
      <time>2018-03-20T12:28:18.76Z</time>
    </trkpt>
    <trkpt lat="39.91737" lon="-5.94885">
      <ele>271.794</ele>
      <time>2018-03-20T12:28:18.76Z</time>
    </trkpt>
    <trkpt lat="39.91761" lon="-5.94877">
      <ele>270.949</ele>
      <time>2018-03-20T12:28:18.76Z</time>
    </trkpt>
    <trkpt lat="39.91781" lon="-5.9487">
      <ele>269.847</ele>
      <time>2018-03-20T12:28:18.76Z</time>
    </trkpt>
    <trkpt lat="39.91803" lon="-5.9486">
      <ele>269.088</ele>
      <time>2018-03-20T12:28:18.76Z</time>
    </trkpt>
    <trkpt lat="39.91822" lon="-5.94849">
      <ele>267.816</ele>
      <time>2018-03-20T12:28:18.76Z</time>
    </trkpt>
    <trkpt lat="39.91851" lon="-5.94831">
      <ele>266.28</ele>
      <time>2018-03-20T12:28:18.76Z</time>
    </trkpt>
    <trkpt lat="39.91862" lon="-5.94823">
      <ele>265.608</ele>
      <time>2018-03-20T12:28:18.761Z</time>
    </trkpt>
    <trkpt lat="39.91878" lon="-5.94811">
      <ele>265.077</ele>
      <time>2018-03-20T12:28:18.761Z</time>
    </trkpt>
    <trkpt lat="39.91893" lon="-5.94798">
      <ele>264.62</ele>
      <time>2018-03-20T12:28:18.761Z</time>
    </trkpt>
    <trkpt lat="39.91914" lon="-5.94777">
      <ele>263.969</ele>
      <time>2018-03-20T12:28:18.761Z</time>
    </trkpt>
    <trkpt lat="39.91937" lon="-5.94754">
      <ele>264.397</ele>
      <time>2018-03-20T12:28:18.761Z</time>
    </trkpt>
    <trkpt lat="39.91956" lon="-5.94731">
      <ele>266.231</ele>
      <time>2018-03-20T12:28:18.761Z</time>
    </trkpt>
    <trkpt lat="39.91972" lon="-5.9471">
      <ele>266.556</ele>
      <time>2018-03-20T12:28:18.761Z</time>
    </trkpt>
    <trkpt lat="39.91993" lon="-5.94677">
      <ele>266.868</ele>
      <time>2018-03-20T12:28:18.761Z</time>
    </trkpt>
    <trkpt lat="39.92014" lon="-5.9464">
      <ele>267.524</ele>
      <time>2018-03-20T12:28:18.761Z</time>
    </trkpt>
    <trkpt lat="39.92037" lon="-5.94595">
      <ele>264.979</ele>
      <time>2018-03-20T12:28:18.761Z</time>
    </trkpt>
    <trkpt lat="39.92078" lon="-5.94523">
      <ele>257.848</ele>
      <time>2018-03-20T12:28:18.761Z</time>
    </trkpt>
    <trkpt lat="39.92094" lon="-5.94493">
      <ele>255.174</ele>
      <time>2018-03-20T12:28:18.761Z</time>
    </trkpt>
    <trkpt lat="39.92098" lon="-5.94485">
      <ele>254.974</ele>
      <time>2018-03-20T12:28:18.761Z</time>
    </trkpt>
    <trkpt lat="39.92101" lon="-5.94481">
      <ele>254.914</ele>
      <time>2018-03-20T12:28:18.762Z</time>
    </trkpt>
    <trkpt lat="39.92105" lon="-5.94475">
      <ele>254.944</ele>
      <time>2018-03-20T12:28:18.762Z</time>
    </trkpt>
    <trkpt lat="39.92108" lon="-5.94466">
      <ele>254.975</ele>
      <time>2018-03-20T12:28:18.762Z</time>
    </trkpt>
    <trkpt lat="39.92129" lon="-5.94413">
      <ele>257.776</ele>
      <time>2018-03-20T12:28:18.762Z</time>
    </trkpt>
    <trkpt lat="39.92143" lon="-5.94377">
      <ele>259.941</ele>
      <time>2018-03-20T12:28:18.762Z</time>
    </trkpt>
    <trkpt lat="39.92154" lon="-5.94338">
      <ele>262.211</ele>
      <time>2018-03-20T12:28:18.762Z</time>
    </trkpt>
    <trkpt lat="39.92162" lon="-5.94308">
      <ele>263.839</ele>
      <time>2018-03-20T12:28:18.762Z</time>
    </trkpt>
    <trkpt lat="39.92169" lon="-5.94273">
      <ele>265.326</ele>
      <time>2018-03-20T12:28:18.762Z</time>
    </trkpt>
    <trkpt lat="39.92177" lon="-5.94227">
      <ele>265.544</ele>
      <time>2018-03-20T12:28:18.762Z</time>
    </trkpt>
    <trkpt lat="39.9218" lon="-5.94202">
      <ele>264.752</ele>
      <time>2018-03-20T12:28:18.762Z</time>
    </trkpt>
    <trkpt lat="39.92184" lon="-5.94162">
      <ele>262.456</ele>
      <time>2018-03-20T12:28:18.762Z</time>
    </trkpt>
    <trkpt lat="39.92185" lon="-5.94121">
      <ele>262.304</ele>
      <time>2018-03-20T12:28:18.762Z</time>
    </trkpt>
    <trkpt lat="39.92185" lon="-5.94066">
      <ele>264.108</ele>
      <time>2018-03-20T12:28:18.762Z</time>
    </trkpt>
    <trkpt lat="39.92185" lon="-5.9403">
      <ele>263.373</ele>
      <time>2018-03-20T12:28:18.762Z</time>
    </trkpt>
    <trkpt lat="39.92185" lon="-5.93958">
      <ele>261.488</ele>
      <time>2018-03-20T12:28:18.763Z</time>
    </trkpt>
    <trkpt lat="39.92185" lon="-5.93907">
      <ele>260.66</ele>
      <time>2018-03-20T12:28:18.763Z</time>
    </trkpt>
    <trkpt lat="39.92183" lon="-5.93843">
      <ele>260.857</ele>
      <time>2018-03-20T12:28:18.763Z</time>
    </trkpt>
    <trkpt lat="39.92183" lon="-5.93792">
      <ele>261.301</ele>
      <time>2018-03-20T12:28:18.763Z</time>
    </trkpt>
    <trkpt lat="39.92183" lon="-5.93755">
      <ele>260.18</ele>
      <time>2018-03-20T12:28:18.763Z</time>
    </trkpt>
    <trkpt lat="39.92182" lon="-5.93688">
      <ele>260.104</ele>
      <time>2018-03-20T12:28:18.763Z</time>
    </trkpt>
    <trkpt lat="39.92182" lon="-5.93656">
      <ele>260.832</ele>
      <time>2018-03-20T12:28:18.763Z</time>
    </trkpt>
    <trkpt lat="39.92176" lon="-5.93593">
      <ele>261.781</ele>
      <time>2018-03-20T12:28:18.763Z</time>
    </trkpt>
    <trkpt lat="39.92173" lon="-5.9357">
      <ele>262.993</ele>
      <time>2018-03-20T12:28:18.763Z</time>
    </trkpt>
    <trkpt lat="39.92169" lon="-5.93545">
      <ele>265.128</ele>
      <time>2018-03-20T12:28:18.763Z</time>
    </trkpt>
    <trkpt lat="39.92165" lon="-5.93523">
      <ele>266.06</ele>
      <time>2018-03-20T12:28:18.763Z</time>
    </trkpt>
    <trkpt lat="39.92155" lon="-5.93479">
      <ele>265.346</ele>
      <time>2018-03-20T12:28:18.763Z</time>
    </trkpt>
    <trkpt lat="39.92144" lon="-5.93443">
      <ele>263.896</ele>
      <time>2018-03-20T12:28:18.763Z</time>
    </trkpt>
    <trkpt lat="39.92128" lon="-5.93395">
      <ele>260.828</ele>
      <time>2018-03-20T12:28:18.763Z</time>
    </trkpt>
    <trkpt lat="39.9211" lon="-5.93351">
      <ele>257.923</ele>
      <time>2018-03-20T12:28:18.764Z</time>
    </trkpt>
    <trkpt lat="39.92091" lon="-5.9331">
      <ele>255.884</ele>
      <time>2018-03-20T12:28:18.764Z</time>
    </trkpt>
    <trkpt lat="39.92068" lon="-5.9327">
      <ele>256.221</ele>
      <time>2018-03-20T12:28:18.764Z</time>
    </trkpt>
    <trkpt lat="39.92037" lon="-5.93221">
      <ele>255.624</ele>
      <time>2018-03-20T12:28:18.764Z</time>
    </trkpt>
    <trkpt lat="39.92018" lon="-5.93197">
      <ele>255.092</ele>
      <time>2018-03-20T12:28:18.764Z</time>
    </trkpt>
    <trkpt lat="39.91998" lon="-5.9317">
      <ele>255.0</ele>
      <time>2018-03-20T12:28:18.764Z</time>
    </trkpt>
    <trkpt lat="39.91982" lon="-5.93153">
      <ele>254.508</ele>
      <time>2018-03-20T12:28:18.764Z</time>
    </trkpt>
    <trkpt lat="39.91934" lon="-5.93108">
      <ele>252.93</ele>
      <time>2018-03-20T12:28:18.764Z</time>
    </trkpt>
    <trkpt lat="39.91902" lon="-5.9308">
      <ele>253.936</ele>
      <time>2018-03-20T12:28:18.764Z</time>
    </trkpt>
    <trkpt lat="39.91882" lon="-5.9306">
      <ele>254.16</ele>
      <time>2018-03-20T12:28:18.764Z</time>
    </trkpt>
    <trkpt lat="39.91833" lon="-5.93013">
      <ele>252.462</ele>
      <time>2018-03-20T12:28:18.764Z</time>
    </trkpt>
    <trkpt lat="39.91813" lon="-5.92994">
      <ele>251.842</ele>
      <time>2018-03-20T12:28:18.765Z</time>
    </trkpt>
    <trkpt lat="39.91796" lon="-5.92975">
      <ele>250.756</ele>
      <time>2018-03-20T12:28:18.765Z</time>
    </trkpt>
    <trkpt lat="39.91794" lon="-5.92972">
      <ele>250.579</ele>
      <time>2018-03-20T12:28:18.765Z</time>
    </trkpt>
  </trkseg>
</trk>
</gpx>
